CWXXXX Weather Reports


time (UTC)temp
C
wind
direction
speed
KPH
gust
KPH
rain 1hr
cm
rain 24hr
cm
rain mn
cm
humidity
%
barometer
mb
20260506035341 16 135 4.8 9.7 0.00 0.00 0.00 85 1011.4
20260506035337 13 86 6.4 11.3 0.23 1.09 0.00 96 1010.6
20260506035333 12 203 0.0 0.0 0.00 0.36 0.00 94 1009.4
20260506035330 12 62 0.0 3.2 0.00 6.35 0.00 96 1008.2
20260506035322 11 125 0.0 0.0 0.00 0.48 0.00 95 1010.3
20260506035319 13 163 1.6 3.2 0.00 0.25 0.00 91 1010.3
20260506034851 15 236 0.0 0.0 2.72 9.86 0.00 96 1008.2
20260506034841 16 135 6.4 9.7 0.00 0.00 0.00 85 1011.4
20260506034837 13 103 6.4 9.7 0.28 1.09 0.00 96 1010.6
20260506034828 12 56 1.6 1.6 0.00 6.35 0.00 95 1008.2
20260506034819 11 125 0.0 0.0 0.00 0.48 0.00 95 1010.3
20260506034816 16 37 0.0 0.0 0.00 0.00 0.00 73 1011.3
20260506034347 16 159 9.7 11.3 0.00 0.00 0.00 85 1011.4
20260506034345 11 323 4.8 11.3 0.00 0.89 0.00 85 1005.7
20260506034334 13 98 4.8 6.4 0.28 1.07 0.00 96 1010.5
20260506034330 12 203 0.0 0.0 0.00 0.36 0.00 94 1009.6
20260506034322 16 37 0.0 0.0 0.00 0.00 0.00 73 1011.2
20260506034319 11 125 0.0 0.0 0.00 0.48 0.00 95 1010.4
20260506034312 13 178 4.8 6.4 0.00 0.25 0.00 91 1010.3
20260506033847 16 175 3.2 9.7 0.00 0.00 0.00 85 1011.4
20260506033839 11 330 4.8 8.0 0.00 0.89 0.00 85 1005.8
20260506033831 13 92 3.2 9.7 0.30 1.07 0.00 96 1010.7
20260506033822 13 216 1.6 4.8 0.00 0.25 0.00 91 1010.5
20260506033816 16 37 0.0 0.0 0.00 0.00 0.00 73 1011.3
20260506033345 15 237 0.0 0.0 2.46 9.78 0.00 96 1008.2
20260506033341 16 164 4.8 14.5 0.00 0.00 0.00 85 1011.4
20260506033339 11 325 6.4 6.4 0.00 0.89 0.00 86 1006.2
20260506033332 13 106 4.8 6.4 0.28 1.04 0.00 96 1010.8
20260506033330 12 29 6.4 6.4 0.00 6.38 0.00 96 1008.4
20260506033319 11 125 0.0 0.0 0.00 0.48 0.00 95 1010.4
20260506033316 13 190 1.6 4.8 0.00 0.25 0.00 91 1010.8
20260506032846 16 140 4.8 11.3 0.00 0.00 0.00 85 1011.4
20260506032837 11 334 3.2 4.8 0.00 0.89 0.00 86 1006.2
20260506032833 12 203 0.0 0.0 0.00 0.36 0.00 94 1009.9
20260506032831 13 103 3.2 6.4 0.25 1.02 0.00 96 1010.9
20260506032827 12 157 0.0 3.2 0.00 6.38 0.00 95 1008.7
20260506032821 13 223 3.2 6.4 0.00 0.25 0.00 91 1010.8
20260506032819 11 125 0.0 3.2 0.00 0.48 0.00 95 1010.5
20260506032345 16 151 8.0 12.9 0.00 0.00 0.00 85 1011.4
20260506032339 11 315 4.8 6.4 0.00 0.89 0.00 87 1006.4
20260506032334 13 123 1.6 8.0 0.20 0.97 0.00 96 1010.9
20260506032330 12 203 0.0 0.0 0.00 0.36 0.00 94 1010.0
20260506032328 12 158 3.2 4.8 0.00 6.38 0.00 95 1008.7
20260506032319 11 119 0.0 0.0 0.00 0.48 0.00 95 1010.5
20260506032316 16 22 0.0 4.8 0.00 0.00 0.00 72 1011.2
20260506031845 15 235 0.0 0.0 1.91 8.97 0.00 96 1008.3
20260506031841 16 130 4.8 11.3 0.00 0.00 0.00 85 1011.3
20260506031836 11 292 1.6 4.8 0.00 0.89 0.00 87 1006.5
20260506031833 12 203 0.0 0.0 0.00 0.36 0.00 94 1010.1
20260506031831 13 121 8.0 9.7 0.18 0.94 0.00 96 1010.7
20260506031822 11 119 0.0 0.0 0.00 0.48 0.00 95 1010.7
20260506031820 16 332 0.0 4.8 0.00 0.00 0.00 72 1011.3
20260506031812 13 221 4.8 4.8 0.00 0.25 0.00 91 1010.8
20260506031346 16 128 1.6 9.7 0.00 0.00 0.00 85 1011.4
20260506031336 11 292 3.2 4.8 0.00 0.89 0.00 87 1006.7
20260506031334 13 129 4.8 6.4 0.18 0.94 0.00 96 1010.7
20260506031327 12 32 0.0 1.6 0.00 6.38 0.00 95 1008.5
20260506031325 11 117 0.0 0.0 0.00 0.48 0.00 95 1010.7
20260506031322 13 234 3.2 4.8 0.00 0.25 0.00 91 1010.9
20260506031319 16 344 0.0 0.0 0.00 0.00 0.00 72 1011.3
20260506030845 11 292 4.8 6.4 0.00 0.89 0.00 87 1006.9
20260506030841 16 148 3.2 4.8 0.00 0.00 0.00 85 1011.4
20260506030834 13 79 3.2 6.4 0.18 0.94 0.00 96 1010.6
20260506030830 12 203 0.0 0.0 0.00 0.36 0.00 94 1010.1
20260506030822 11 116 0.0 0.0 0.00 0.48 0.00 95 1010.7
20260506030820 15 346 0.0 4.8 0.00 0.00 0.00 73 1011.4
20260506030813 13 232 4.8 6.4 0.00 0.25 0.00 91 1010.9
20260506030345 15 80 0.0 0.0 1.22 8.28 0.00 96 1008.3
20260506030339 11 284 4.8 4.8 0.00 0.89 0.00 87 1007.0
20260506030336 12 203 0.0 0.0 0.00 0.36 0.00 94 1010.2
20260506030334 13 80 3.2 6.4 0.18 0.94 0.00 96 1010.8
20260506030328 12 32 3.2 4.8 0.00 6.38 0.00 95 1008.6
20260506030319 15 43 4.8 8.0 0.00 0.00 0.00 76 1011.4
20260506025843 11 284 1.6 4.8 0.00 0.89 0.00 87 1006.9
20260506025841 16 163 1.6 8.0 0.00 0.00 0.00 85 1011.5
20260506025837 13 77 3.2 6.4 0.13 0.89 0.00 96 1010.9
20260506025833 12 203 0.0 0.0 0.00 0.36 0.00 94 1010.3
20260506025827 12 244 1.6 4.8 0.00 6.38 0.00 95 1008.6
20260506025819 11 115 0.0 0.0 0.00 0.48 0.00 95 1010.6
20260506025817 15 60 6.4 8.0 0.00 0.00 0.00 74 1011.3
20260506025813 13 179 3.2 4.8 0.00 0.25 0.00 91 1011.1
20260506025347 16 186 3.2 8.0 0.00 0.00 0.00 85 1011.5
20260506025336 11 284 3.2 4.8 0.00 0.89 0.00 87 1007.0
20260506025334 13 91 4.8 9.7 0.08 0.84 0.00 96 1011.0
20260506025327 12 244 3.2 4.8 0.00 6.38 0.00 95 1008.6
20260506025319 13 141 1.6 4.8 0.00 0.25 0.00 91 1011.1
20260506025317 16 1 3.2 6.4 0.00 0.00 0.00 72 1011.3
20260506024848 15 81 0.0 0.0 0.74 7.80 0.00 95 1008.5
20260506024842 16 194 3.2 9.7 0.00 0.00 0.00 85 1011.5
20260506024839 11 284 3.2 4.8 0.00 0.89 0.00 87 1006.9
20260506024834 13 120 3.2 9.7 0.05 0.81 0.00 96 1011.0
20260506024830 12 243 1.6 4.8 0.00 6.40 0.00 95 1008.6
20260506024819 11 115 0.0 0.0 0.00 0.48 0.00 95 1010.7
20260506024817 16 316 6.4 6.4 0.00 0.00 0.00 73 1011.3
20260506024341 16 169 4.8 11.3 0.00 0.00 0.00 85 1011.4
20260506024339 11 284 4.8 4.8 0.00 0.89 0.00 87 1006.9
20260506024333 12 203 0.0 0.0 0.00 0.36 0.00 94 1010.4
20260506024327 12 245 3.2 8.0 0.00 6.40 0.00 95 1008.5
20260506024319 11 116 0.0 0.0 0.00 0.48 0.00 95 1010.7
20260506024317 15 322 0.0 1.6 0.00 0.00 0.00 74 1011.4
20260506024312 13 175 1.6 4.8 0.00 0.25 0.00 91 1011.1
20260506023842 16 156 3.2 12.9 0.00 0.00 0.00 85 1011.3
20260506023836 11 284 3.2 4.8 0.00 0.89 0.00 87 1007.0
20260506023834 13 94 4.8 11.3 0.00 0.74 0.00 96 1011.0
20260506023830 12 255 1.6 4.8 0.00 6.43 0.00 95 1008.5
20260506023823 15 9 1.6 4.8 0.00 0.00 0.00 75 1011.6
20260506023819 11 116 0.0 0.0 0.00 0.48 0.00 95 1010.8
20260506023812 13 175 1.6 3.2 0.00 0.25 0.00 91 1011.2
20260506023345 15 294 0.0 0.0 0.46 7.52 0.00 95 1008.7
20260506023343 11 284 3.2 4.8 0.00 0.89 0.00 88 1007.1
20260506023334 13 61 6.4 14.5 0.00 0.74 0.00 96 1011.1
20260506023331 12 34 3.2 3.2 0.00 6.43 0.00 95 1008.6
20260506023319 11 116 0.0 0.0 0.00 0.48 0.00 95 1010.7
20260506023317 15 27 0.0 1.6 0.00 0.00 0.00 75 1011.6
20260506022842 16 162 4.8 9.7 0.00 0.00 0.00 84 1011.2
20260506022836 11 284 1.6 4.8 0.00 0.89 0.00 88 1007.1
20260506022834 13 89 4.8 9.7 0.00 0.74 0.00 96 1011.1
20260506022828 11 119 0.0 0.0 0.00 0.48 0.00 95 1010.6
20260506022817 16 325 0.0 0.0 0.00 0.00 0.00 75 1011.6
20260506022815 13 67 3.2 4.8 0.00 0.25 0.00 91 1011.0
20260506022344 16 174 6.4 14.5 0.00 0.00 0.00 84 1011.3
20260506022339 11 284 3.2 4.8 0.00 0.89 0.00 88 1007.1
20260506022331 13 90 6.4 11.3 0.00 0.74 0.00 96 1011.0
20260506022323 16 322 0.0 0.0 0.00 0.00 0.00 75 1011.7
20260506022319 11 175 0.0 0.0 0.00 0.48 0.00 95 1010.6
20260506021856 15 118 0.0 0.0 0.05 7.11 0.00 95 1008.2
20260506021841 16 162 6.4 9.7 0.00 0.00 0.00 84 1011.3
20260506021839 11 294 1.6 4.8 0.00 0.89 0.00 88 1007.1
20260506021837 12 203 0.0 0.0 0.00 0.36 0.00 93 1010.3
20260506021834 13 77 4.8 12.9 0.00 0.74 0.00 96 1011.1
20260506021824 11 176 0.0 0.0 0.00 0.48 0.00 95 1010.6
20260506021817 16 337 0.0 1.6 0.00 0.00 0.00 75 1011.8
20260506021813 13 187 4.8 8.0 0.00 0.25 0.00 91 1010.9
20260506021342 16 155 3.2 11.3 0.00 0.00 0.00 84 1011.3
20260506021337 12 203 0.0 0.0 0.00 0.36 0.00 93 1010.3
20260506021333 13 65 4.8 12.9 0.00 0.74 0.00 96 1011.0
20260506021329 11 176 0.0 0.0 0.00 0.48 0.00 95 1010.6
20260506021320 16 19 0.0 0.0 0.00 0.00 0.00 75 1011.8
20260506021317 13 221 3.2 4.8 0.00 0.25 0.00 91 1010.8
20260506020844 16 186 6.4 11.3 0.00 0.00 0.00 84 1011.3
20260506020839 13 107 3.2 12.9 0.00 0.74 0.00 95 1011.1
20260506020834 12 203 0.0 0.0 0.00 0.36 0.00 93 1010.4
20260506020820 16 355 0.0 0.0 0.00 0.00 0.00 76 1011.9
20260506020814 13 221 3.2 4.8 0.00 0.25 0.00 91 1010.8
20260506020349 15 118 0.0 0.0 0.03 7.14 0.00 95 1008.5
20260506020344 16 158 8.0 12.9 0.00 0.00 0.00 84 1011.4
20260506020340 11 294 1.6 4.8 0.00 0.89 0.00 88 1007.2
20260506020337 13 74 3.2 8.0 0.00 0.74 0.00 95 1011.3
20260506020333 12 203 0.0 0.0 0.00 0.36 0.00 94 1010.2
20260506020319 11 176 0.0 0.0 0.00 0.48 0.00 94 1010.8
20260506020315 16 168 0.0 0.0 0.00 0.00 0.00 76 1012.0
20260506020312 13 221 1.6 1.6 0.00 0.25 0.00 91 1010.8
20260506015844 16 143 6.4 14.5 0.00 0.00 0.00 84 1011.4
20260506015837 13 119 3.2 9.7 0.00 0.74 0.00 95 1011.4
20260506015832 11 294 1.6 4.8 0.00 0.89 0.00 88 1007.2
20260506015830 12 203 0.0 1.6 0.00 0.36 0.00 94 1010.2
20260506015828 12 257 0.0 0.0 0.00 6.43 0.00 95 1008.7
20260506015822 11 178 0.0 0.0 0.00 0.48 0.00 95 1010.8
20260506015815 16 167 0.0 0.0 0.00 0.00 0.00 76 1012.1
20260506015812 13 221 0.0 1.6 0.00 0.25 0.00 91 1010.7
20260506015341 16 158 6.4 12.9 0.00 0.00 0.00 84 1011.5
20260506015332 11 294 1.6 3.2 0.00 0.89 0.00 88 1007.2
20260506015330 12 203 0.0 3.2 0.00 0.36 0.00 93 1010.2
20260506015319 11 181 0.0 0.0 0.00 0.48 0.00 95 1010.9
20260506015313 13 221 0.0 1.6 0.00 0.25 0.00 91 1010.9
20260506014844 16 113 8.0 12.9 0.00 0.00 0.00 84 1011.5
20260506014838 11 294 3.2 4.8 0.00 0.89 0.00 88 1007.4
20260506014834 13 98 4.8 9.7 0.00 0.74 0.00 95 1011.3
20260506014822 11 181 0.0 0.0 0.00 0.48 0.00 95 1011.0
20260506014812 16 167 0.0 0.0 0.00 0.00 0.00 75 1012.2
20260506014341 16 172 1.6 11.3 0.00 0.00 0.00 84 1011.6
20260506014337 13 121 3.2 9.7 0.00 0.74 0.00 95 1011.4
20260506014333 12 203 0.0 1.6 0.00 0.36 0.00 94 1010.2
20260506014327 12 255 0.0 4.8 0.00 6.43 0.00 95 1008.8
20260506014322 11 181 0.0 0.0 0.00 0.48 0.00 95 1011.0
20260506014318 16 168 0.0 0.0 0.00 0.00 0.00 75 1012.2
20260506014315 13 221 1.6 3.2 0.00 0.25 0.00 91 1011.3
20260506013841 16 160 3.2 11.3 0.00 0.00 0.00 84 1011.5
20260506013833 12 255 1.6 3.2 0.03 6.43 0.00 95 1008.8
20260506013831 13 109 4.8 6.4 0.00 0.74 0.00 95 1011.5
20260506013822 11 181 0.0 0.0 0.00 0.48 0.00 95 1010.9
20260506013815 16 160 0.0 0.0 0.00 0.00 0.00 75 1012.1
20260506013813 13 221 1.6 6.4 0.00 0.25 0.00 91 1011.4
20260506013348 15 118 0.0 0.0 0.33 7.16 0.00 95 1009.0
20260506013341 16 153 1.6 9.7 0.00 0.00 0.00 84 1011.6
20260506013336 11 294 3.2 4.8 0.00 0.89 0.00 88 1007.3
20260506013331 13 120 4.8 6.4 0.00 0.74 0.00 95 1011.6
20260506013327 12 255 1.6 6.4 0.03 6.43 0.00 95 1008.8
20260506013324 11 181 0.0 0.0 0.00 0.48 0.00 95 1010.9
20260506013321 16 161 0.0 0.0 0.00 0.00 0.00 76 1012.1
20260506013312 13 222 4.8 8.0 0.00 0.25 0.00 91 1011.4
20260506012850 16 154 3.2 11.3 0.00 0.00 0.00 84 1011.7
20260506012834 13 121 3.2 4.8 0.00 0.74 0.00 95 1011.6
20260506012832 11 294 3.2 4.8 0.00 0.89 0.00 88 1007.3
20260506012830 12 203 0.0 0.0 0.00 0.36 0.00 94 1010.5
20260506012827 12 229 3.2 6.4 0.03 6.43 0.00 95 1009.2
20260506012822 11 181 0.0 0.0 0.00 0.48 0.00 95 1010.9
20260506012818 16 160 0.0 0.0 0.00 0.00 0.00 76 1012.2
20260506012815 13 248 3.2 6.4 0.00 0.25 0.00 91 1011.4
20260506012341 16 148 6.4 11.3 0.00 0.00 0.00 84 1011.6
20260506012338 15 249 0.0 3.2 0.00 0.15 0.00 88 1011.9
20260506012335 11 294 1.6 4.8 0.00 0.89 0.00 88 1007.4
20260506012333 12 203 0.0 0.0 0.00 0.36 0.00 93 1010.6
20260506012319 11 181 0.0 0.0 0.00 0.48 0.00 95 1011.0
20260506012312 16 161 0.0 0.0 0.00 0.00 0.00 75 1012.1
20260506011843 15 118 0.0 0.0 0.46 7.21 0.00 95 1009.0
20260506011838 15 249 3.2 4.8 0.00 0.15 0.00 88 1012.0
20260506011833 13 273 0.0 4.8 0.08 6.43 0.00 95 1009.2
20260506011831 13 123 3.2 9.7 0.00 0.74 0.00 95 1011.6
20260506011822 11 181 0.0 0.0 0.00 0.48 0.00 94 1011.1
20260506011819 13 167 4.8 6.4 0.00 0.25 0.00 90 1011.5
20260506011812 16 161 0.0 0.0 0.00 0.00 0.00 75 1012.1
20260506011344 15 249 0.0 1.6 0.00 0.15 0.00 88 1012.0
20260506011341 16 155 8.0 11.3 0.00 0.00 0.00 83 1011.6
20260506011338 11 294 3.2 4.8 0.00 0.89 0.00 88 1007.5
20260506011334 13 117 3.2 9.7 0.00 0.74 0.00 95 1011.8
20260506011330 13 38 0.0 1.6 0.08 6.43 0.00 95 1009.5
20260506011325 11 181 0.0 0.0 0.00 0.48 0.00 94 1010.9
20260506011316 13 196 3.2 4.8 0.00 0.25 0.00 90 1011.5
20260506011312 16 160 0.0 0.0 0.00 0.00 0.00 75 1012.2
20260506010850 16 127 4.8 9.7 0.00 0.00 0.00 84 1011.7
20260506010841 15 0 1.6 3.2 0.00 0.15 0.00 88 1012.0
20260506010834 13 124 3.2 4.8 0.00 0.74 0.00 95 1012.0
20260506010832 11 294 3.2 4.8 0.00 0.89 0.00 88 1007.6
20260506010830 12 203 0.0 0.0 0.00 0.36 0.00 93 1010.9
20260506010827 13 38 0.0 0.0 0.08 6.43 0.00 95 1009.5
20260506010819 11 181 0.0 0.0 0.00 0.48 0.00 94 1010.8
20260506010812 13 211 3.2 6.4 0.00 0.25 0.00 90 1011.6
20260506010343 15 118 0.0 0.0 0.56 7.29 0.00 95 1009.1
20260506010338 15 249 0.0 3.2 0.00 0.15 0.00 88 1012.0
20260506010336 12 203 0.0 0.0 0.00 0.36 0.00 93 1010.8
20260506010332 10 294 1.6 4.8 0.00 0.89 0.00 88 1007.6
20260506010319 11 189 0.0 0.0 0.00 0.48 0.00 95 1010.9
20260506010316 13 171 1.6 8.0 0.00 0.25 0.00 90 1011.4
20260506010312 16 160 0.0 0.0 0.00 0.00 0.00 74 1012.2
20260506005844 16 164 4.8 12.9 0.00 0.00 0.00 84 1011.6
20260506005840 15 249 1.6 4.8 0.00 0.15 0.00 88 1012.1
20260506005833 12 203 0.0 1.6 0.00 0.36 0.00 93 1010.9
20260506005831 13 119 3.2 4.8 0.00 0.74 0.00 95 1012.2
20260506005822 11 189 0.0 0.0 0.00 0.48 0.00 94 1010.9
20260506005812 13 165 8.0 8.0 0.00 0.25 0.00 91 1011.5
20260506005344 15 0 0.0 3.2 0.00 0.15 0.00 88 1012.2
20260506005341 16 148 9.7 14.5 0.00 0.00 0.00 84 1011.6
20260506005333 10 294 3.2 6.4 0.00 0.89 0.00 88 1007.5
20260506005331 13 115 0.0 3.2 0.00 0.74 0.00 95 1012.2
20260506005319 11 189 0.0 0.0 0.00 0.48 0.00 94 1010.9
20260506005315 16 160 0.0 0.0 0.00 0.00 0.00 73 1012.4
20260506005312 13 180 3.2 6.4 0.00 0.25 0.00 91 1011.4
20260506004842 15 249 1.6 4.8 0.00 0.15 0.00 87 1012.2
20260506004835 10 294 4.8 6.4 0.00 0.89 0.00 88 1007.6
20260506004833 12 203 0.0 0.0 0.00 0.36 0.00 93 1010.8
20260506004819 11 188 0.0 0.0 0.00 0.48 0.00 94 1010.9
20260506004813 13 227 4.8 6.4 0.00 0.25 0.00 91 1011.5
20260506004348 16 166 8.0 12.9 0.00 0.00 0.00 84 1011.7
20260506004338 15 249 0.0 1.6 0.00 0.15 0.00 87 1012.1
20260506004332 10 294 3.2 6.4 0.00 0.89 0.00 88 1007.7
20260506004330 12 203 0.0 0.0 0.00 0.36 0.00 93 1010.8
20260506004319 11 188 0.0 0.0 0.00 0.48 0.00 95 1011.0
20260506004312 16 160 0.0 0.0 0.00 0.00 0.00 74 1012.5
20260506003844 16 169 3.2 12.9 0.00 0.00 0.00 84 1011.6
20260506003840 13 115 1.6 1.6 0.00 0.74 0.00 95 1012.2
20260506003838 10 294 4.8 4.8 0.00 0.89 0.00 88 1007.6
20260506003833 12 203 0.0 1.6 0.00 0.36 0.00 93 1010.9
20260506003825 11 189 0.0 0.0 0.00 0.48 0.00 95 1010.9
20260506003818 13 212 4.8 4.8 0.00 0.25 0.00 91 1011.6
20260506003815 16 160 0.0 0.0 0.00 0.00 0.00 74 1012.5
20260506003342 14 118 0.0 0.0 0.53 7.06 0.00 95 1009.6
20260506003340 15 249 0.0 1.6 0.00 0.15 0.00 87 1012.2
20260506003333 12 203 0.0 1.6 0.00 0.36 0.00 93 1010.9
20260506003331 13 115 0.0 3.2 0.00 0.74 0.00 95 1012.2
20260506003319 11 189 0.0 0.0 0.00 0.48 0.00 95 1010.9
20260506003312 13 267 3.2 4.8 0.00 0.25 0.00 90 1011.6
20260506002844 16 158 4.8 12.9 0.00 0.00 0.00 84 1011.6
20260506002839 15 249 0.0 1.6 0.00 0.15 0.00 87 1012.2
20260506002835 10 294 3.2 4.8 0.00 0.89 0.00 88 1007.6
20260506002833 13 29 3.2 6.4 0.10 6.40 0.00 95 1009.7
20260506002830 12 203 0.0 0.0 0.00 0.36 0.00 93 1011.0
20260506002819 11 188 0.0 0.0 0.00 0.48 0.00 94 1011.0
20260506002812 13 268 1.6 3.2 0.00 0.25 0.00 90 1011.5
20260506002343 15 249 0.0 3.2 0.00 0.15 0.00 86 1012.2
20260506002341 16 156 8.0 12.9 0.00 0.00 0.00 84 1011.7
20260506002338 10 294 4.8 6.4 0.00 0.89 0.00 88 1007.6
20260506002333 13 355 1.6 6.4 0.08 6.38 0.00 95 1009.7
20260506002331 13 115 0.0 3.2 0.00 0.74 0.00 95 1012.0
20260506002328 11 188 0.0 1.6 0.00 0.48 0.00 94 1011.0
20260506002318 13 268 0.0 3.2 0.00 0.25 0.00 90 1011.6
20260506002312 15 190 0.0 6.4 0.00 0.00 0.00 74 1012.4
20260506001851 14 118 0.0 0.0 0.86 7.04 0.00 94 1009.7
20260506001841 16 171 6.4 12.9 0.00 0.00 0.00 84 1011.7
20260506001838 15 249 3.2 4.8 0.00 0.15 0.00 85 1012.2
20260506001833 10 294 4.8 4.8 0.00 0.89 0.00 88 1007.9
20260506001831 14 255 3.2 4.8 0.05 6.35 0.00 95 1009.7
20260506001822 11 188 0.0 0.0 0.00 0.48 0.00 94 1011.0
20260506001815 16 173 3.2 6.4 0.00 0.00 0.00 74 1012.4
20260506001344 16 140 8.0 12.9 0.00 0.00 0.00 84 1011.7
20260506001338 10 294 3.2 6.4 0.00 0.89 0.00 88 1007.8
20260506001336 14 215 0.0 3.2 0.05 6.35 0.00 95 1009.7
20260506001333 12 203 0.0 0.0 0.00 0.36 0.00 93 1011.0
20260506001331 13 115 0.0 4.8 0.00 0.74 0.00 95 1012.0
20260506001322 11 188 0.0 0.0 0.00 0.48 0.00 94 1011.0
20260506001318 16 194 4.8 6.4 0.00 0.00 0.00 74 1012.5
20260506000844 16 172 8.0 12.9 0.00 0.00 0.00 84 1011.8
20260506000842 15 250 1.6 6.4 0.00 0.15 0.00 85 1012.4
20260506000837 13 115 3.2 4.8 0.00 0.74 0.00 95 1012.2
20260506000835 10 294 3.2 4.8 0.00 0.89 0.00 88 1008.0
20260506000833 12 203 0.0 0.0 0.00 0.36 0.00 93 1011.0
20260506000828 14 215 1.6 6.4 0.05 6.35 0.00 95 1009.7
20260506000819 11 188 0.0 0.0 0.00 0.48 0.00 94 1011.1
20260506000812 16 197 0.0 0.0 0.00 0.00 0.00 73 1012.6
20260506000349 14 118 0.0 0.0 0.79 6.96 0.00 94 1009.9
20260506000341 16 146 6.4 11.3 0.00 0.00 0.00 84 1011.7
20260506000336 12 203 0.0 0.0 0.00 0.36 0.00 93 1011.0
20260506000334 13 115 1.6 3.2 0.00 0.74 0.00 95 1012.3
20260506000325 11 188 0.0 0.0 0.00 0.48 0.00 94 1011.1
20260506000322 16 187 0.0 0.0 0.00 0.00 0.00 74 1012.6
20260506000318 14 268 3.2 4.8 0.00 0.25 0.00 90 1011.5
20260505235848 16 141 4.8 9.7 0.00 0.00 0.00 84 1011.8
20260505235841 10 294 1.6 4.8 0.00 0.89 0.00 88 1008.1
20260505235838 14 248 1.6 3.2 0.00 0.15 0.00 86 1012.6
20260505235834 13 115 1.6 3.2 0.00 0.74 0.00 95 1012.4
20260505235830 12 203 0.0 4.8 0.00 0.36 0.00 94 1011.0
20260505235827 14 288 3.2 3.2 0.00 6.30 0.00 95 1009.6
20260505235822 11 188 0.0 0.0 0.00 0.48 0.00 94 1011.2
20260505235812 16 187 0.0 0.0 0.00 0.00 0.00 72 1012.7
20260505235344 14 250 1.6 1.6 0.00 0.15 0.00 87 1012.6
20260505235341 16 148 6.4 14.5 0.00 0.00 0.00 84 1011.8
20260505235336 10 294 1.6 4.8 0.00 0.86 0.00 88 1008.1
20260505235334 13 115 0.0 3.2 0.00 0.74 0.00 95 1012.6
20260505235319 11 188 0.0 0.0 0.00 0.48 0.00 94 1011.1
20260505235315 16 165 0.0 4.8 0.00 0.00 0.00 71 1012.8
20260505235312 14 192 3.2 4.8 0.00 0.23 0.00 90 1011.8
20260505234852 14 118 0.0 0.0 1.04 7.04 0.00 94 1009.9
20260505234847 16 138 9.7 11.3 0.00 0.00 0.00 84 1011.9
20260505234841 14 250 0.0 3.2 0.00 0.15 0.00 87 1012.6
20260505234836 12 203 0.0 0.0 0.00 0.36 0.00 93 1011.0
20260505234832 13 115 0.0 3.2 0.00 0.74 0.00 95 1012.6
20260505234828 14 19 1.6 3.2 0.00 6.30 0.00 95 1009.6
20260505234819 11 188 0.0 0.0 0.00 0.48 0.00 94 1011.2
20260505234815 16 138 3.2 4.8 0.00 0.00 0.00 71 1012.9
20260505234812 14 192 3.2 4.8 0.00 0.23 0.00 90 1011.8
20260505234347 16 167 6.4 11.3 0.00 0.00 0.00 84 1011.9
20260505234341 10 294 1.6 4.8 0.00 0.86 0.00 88 1008.1
20260505234338 14 249 3.2 3.2 0.00 0.15 0.00 87 1012.7
20260505234331 12 115 1.6 1.6 0.00 0.74 0.00 95 1012.4
20260505234328 11 188 0.0 1.6 0.00 0.48 0.00 94 1011.2
20260505234315 16 145 3.2 4.8 0.00 0.00 0.00 72 1012.8
20260505234312 14 192 4.8 3.2 0.00 0.23 0.00 90 1011.8
20260505233847 16 169 6.4 14.5 0.00 0.00 0.00 84 1011.9
20260505233832 10 294 3.2 4.8 0.00 0.86 0.00 88 1008.1
20260505233830 13 203 0.0 1.6 0.00 0.36 0.00 93 1011.2
20260505233822 11 188 0.0 3.2 0.00 0.48 0.00 94 1011.1
20260505233815 14 191 0.0 1.6 0.00 0.23 0.00 89 1011.8
20260505233812 16 141 3.2 6.4 0.00 0.00 0.00 72 1012.9
20260505233342 16 170 6.4 14.5 0.00 0.00 0.00 84 1012.0
20260505233340 14 249 0.0 0.0 0.00 0.15 0.00 87 1012.9
20260505233338 10 294 3.2 6.4 0.00 0.86 0.00 88 1008.1
20260505233334 13 115 0.0 3.2 0.00 0.74 0.00 95 1012.5
20260505233330 13 203 0.0 0.0 0.00 0.36 0.00 93 1011.2
20260505233328 14 150 1.6 4.8 0.00 6.30 0.00 95 1009.8
20260505233325 11 138 0.0 0.0 0.00 0.48 0.00 94 1011.2
20260505233312 16 139 4.8 6.4 0.00 0.00 0.00 71 1012.9
20260505232844 16 146 8.0 11.3 0.00 0.00 0.00 84 1012.0
20260505232838 15 248 0.0 3.2 0.00 0.15 0.00 88 1013.0
20260505232834 13 203 0.0 1.6 0.00 0.36 0.00 94 1011.2
20260505232832 10 294 4.8 4.8 0.00 0.86 0.00 88 1008.0
20260505232822 11 131 0.0 0.0 0.00 0.48 0.00 94 1011.3
20260505232815 16 127 6.4 8.0 0.00 0.00 0.00 71 1012.9
20260505232812 14 209 1.6 4.8 0.00 0.23 0.00 90 1011.8
20260505232351 16 174 6.4 14.5 0.00 0.00 0.00 84 1012.1
20260505232341 15 249 1.6 6.4 0.00 0.15 0.00 88 1013.0
20260505232335 10 294 3.2 4.8 0.00 0.86 0.00 88 1008.0
20260505232331 11 131 0.0 0.0 0.00 0.48 0.00 94 1011.3
20260505232321 16 120 8.0 8.0 0.00 0.00 0.00 71 1012.9
20260505232312 14 209 3.2 6.4 0.00 0.23 0.00 90 1011.9
20260505231845 15 118 0.0 0.0 0.36 6.35 0.00 93 1010.0
20260505231841 14 249 4.8 4.8 0.00 0.15 0.00 88 1013.1
20260505231838 10 294 4.8 4.8 0.00 0.86 0.00 88 1008.0
20260505231834 13 82 1.6 4.8 0.00 0.74 0.00 95 1012.7
20260505231830 14 104 3.2 3.2 0.00 6.30 0.00 95 1010.1
20260505231821 11 131 0.0 1.6 0.00 0.48 0.00 94 1011.4
20260505231818 16 128 6.4 8.0 0.00 0.00 0.00 72 1012.9
20260505231813 14 167 0.0 4.8 0.00 0.23 0.00 90 1012.0
20260505231341 15 248 1.6 3.2 0.00 0.15 0.00 88 1013.0
20260505231333 10 294 3.2 6.4 0.00 0.86 0.00 88 1008.0
20260505231331 13 82 0.0 3.2 0.00 0.74 0.00 95 1012.8
20260505231325 11 131 1.6 1.6 0.00 0.48 0.00 94 1011.4
20260505231312 16 121 6.4 6.4 0.00 0.00 0.00 71 1013.0
20260505230847 16 167 1.6 12.9 0.00 0.00 0.00 84 1012.2
20260505230840 15 249 0.0 1.6 0.00 0.15 0.00 88 1012.9
20260505230837 12 82 0.0 1.6 0.00 0.74 0.00 95 1012.8
20260505230832 10 294 4.8 4.8 0.00 0.86 0.00 88 1008.1
20260505230819 11 131 0.0 0.0 0.00 0.48 0.00 94 1011.5
20260505230815 16 102 0.0 6.4 0.00 0.00 0.00 70 1013.0
20260505230812 14 166 1.6 4.8 0.00 0.23 0.00 89 1012.0
20260505230345 16 118 0.0 0.0 0.33 6.30 0.00 94 1010.2
20260505230341 16 159 6.4 12.9 0.00 0.00 0.00 84 1012.2
20260505230338 15 249 0.0 1.6 0.00 0.15 0.00 88 1012.9
20260505230335 10 294 3.2 6.4 0.00 0.86 0.00 88 1008.1
20260505230330 13 203 0.0 0.0 0.00 0.36 0.00 94 1011.2
20260505230327 14 90 1.6 3.2 0.08 6.30 0.00 95 1010.2
20260505230325 11 131 0.0 0.0 0.00 0.48 0.00 94 1011.6
20260505230318 14 161 0.0 6.4 0.00 0.23 0.00 90 1012.1
20260505230315 16 96 0.0 0.0 0.00 0.00 0.00 70 1013.0
20260505225842 16 161 3.2 9.7 0.00 0.00 0.00 84 1012.3
20260505225838 15 250 0.0 1.6 0.00 0.15 0.00 88 1013.0
20260505225836 13 203 0.0 0.0 0.00 0.36 0.00 94 1011.3
20260505225831 14 126 3.2 6.4 0.08 6.30 0.00 95 1010.2
20260505225819 12 130 0.0 0.0 0.00 0.48 0.00 94 1011.5
20260505225812 14 215 0.0 4.8 0.00 0.23 0.00 90 1012.1
20260505225344 16 123 3.2 11.3 0.00 0.00 0.00 84 1012.2
20260505225338 15 249 0.0 0.0 0.00 0.15 0.00 88 1013.0
20260505225336 13 203 0.0 0.0 0.00 0.36 0.00 94 1011.3
20260505225334 12 81 0.0 1.6 0.00 0.74 0.00 95 1012.8
20260505225332 10 295 3.2 6.4 0.00 0.86 0.00 88 1008.3
20260505225328 14 66 1.6 8.0 0.08 6.30 0.00 95 1010.2
20260505225321 14 187 3.2 6.4 0.00 0.23 0.00 90 1012.0
20260505225316 16 92 0.0 0.0 0.00 0.00 0.00 72 1013.1
20260505224845 16 118 0.0 0.0 0.05 6.02 0.00 94 1010.7
20260505224838 10 294 3.2 4.8 0.00 0.86 0.00 88 1008.3
20260505224833 13 203 0.0 0.0 0.00 0.36 0.00 94 1011.3
20260505224831 15 133 4.8 6.4 0.10 6.30 0.00 95 1010.2
20260505224819 16 89 0.0 0.0 0.00 0.00 0.00 72 1013.1
20260505224812 14 184 3.2 6.4 0.00 0.23 0.00 90 1012.0
20260505224341 16 154 4.8 11.3 0.00 0.00 0.00 83 1012.3
20260505224337 12 81 0.0 1.6 0.00 0.74 0.00 94 1012.8
20260505224335 10 295 4.8 4.8 0.00 0.86 0.00 88 1008.3
20260505224330 13 203 0.0 0.0 0.00 0.36 0.00 94 1011.3
20260505224328 14 228 0.0 4.8 0.10 6.30 0.00 95 1010.1
20260505224322 12 130 0.0 0.0 0.00 0.48 0.00 94 1011.6
20260505224312 14 192 0.0 4.8 0.00 0.23 0.00 90 1012.0
20260505223841 16 192 3.2 9.7 0.00 0.00 0.00 83 1012.4
20260505223834 12 81 0.0 3.2 0.00 0.74 0.00 94 1012.8
20260505223830 13 203 0.0 0.0 0.00 0.36 0.00 94 1011.4
20260505223828 15 269 0.0 4.8 0.10 6.30 0.00 95 1010.1
20260505223819 11 130 0.0 0.0 0.00 0.48 0.00 94 1011.7
20260505223812 16 120 0.0 0.0 0.00 0.00 0.00 71 1013.3
20260505223345 16 91 0.0 0.0 0.00 5.97 0.00 94 1010.3
20260505223341 16 200 6.4 14.5 0.00 0.00 0.00 83 1012.5
20260505223338 15 250 0.0 0.0 0.00 0.15 0.00 88 1013.2
20260505223334 14 26 1.6 3.2 0.10 6.30 0.00 95 1010.1
20260505223330 13 203 0.0 0.0 0.00 0.36 0.00 94 1011.5
20260505223319 11 130 0.0 0.0 0.00 0.48 0.00 94 1011.7
20260505223313 16 132 0.0 4.8 0.00 0.00 0.00 71 1013.3
20260505222844 16 193 3.2 11.3 0.00 0.00 0.00 83 1012.4
20260505222838 15 250 0.0 1.6 0.00 0.15 0.00 88 1013.3
20260505222834 13 81 0.0 3.2 0.00 0.74 0.00 94 1012.7
20260505222832 10 295 3.2 6.4 0.00 0.86 0.00 88 1008.4
20260505222830 13 203 0.0 3.2 0.00 0.36 0.00 94 1011.6
20260505222828 14 24 3.2 4.8 0.10 6.30 0.00 95 1010.1
20260505222819 11 130 0.0 0.0 0.00 0.48 0.00 94 1011.7
20260505222816 16 121 4.8 6.4 0.00 0.00 0.00 72 1013.4
20260505222812 13 192 4.8 4.8 0.00 0.23 0.00 89 1012.1
20260505222344 16 167 4.8 16.1 0.00 0.00 0.00 83 1012.5
20260505222338 15 248 0.0 1.6 0.00 0.15 0.00 88 1013.3
20260505222333 13 203 1.6 3.2 0.00 0.36 0.00 94 1011.6
20260505222331 13 81 1.6 3.2 0.00 0.74 0.00 94 1012.7
20260505222328 14 245 0.0 8.0 0.10 6.30 0.00 95 1010.1
20260505222322 11 130 0.0 0.0 0.00 0.48 0.00 94 1011.6
20260505222316 16 133 4.8 6.4 0.00 0.00 0.00 74 1013.4
20260505221853 16 91 0.0 0.0 0.00 5.97 0.00 94 1010.4
20260505221841 16 192 9.7 12.9 0.00 0.00 0.00 83 1012.6
20260505221838 15 248 0.0 3.2 0.00 0.15 0.00 88 1013.3
20260505221836 10 295 6.4 6.4 0.00 0.86 0.00 88 1008.5
20260505221830 13 203 0.0 0.0 0.00 0.36 0.00 94 1011.5
20260505221825 11 121 0.0 0.0 0.00 0.48 0.00 94 1011.7
20260505221813 15 117 0.0 0.0 0.00 0.00 0.00 75 1013.4
20260505221347 16 211 6.4 16.1 0.00 0.00 0.00 83 1012.7
20260505221345 15 250 3.2 8.0 0.00 0.15 0.00 88 1013.3
20260505221336 10 296 3.2 4.8 0.00 0.86 0.00 88 1008.5
20260505221334 13 75 4.8 6.4 0.00 0.74 0.00 94 1012.7
20260505221331 14 234 1.6 3.2 0.10 6.30 0.00 95 1010.1
20260505221322 11 121 0.0 0.0 0.00 0.48 0.00 94 1011.7
20260505221318 13 194 0.0 3.2 0.00 0.23 0.00 89 1012.2
20260505221313 15 120 0.0 0.0 0.00 0.00 0.00 76 1013.5
20260505220845 16 189 9.7 14.5 0.00 0.00 0.00 83 1012.8
20260505220841 15 248 8.0 6.4 0.00 0.15 0.00 88 1013.4
20260505220836 10 296 1.6 6.4 0.00 0.86 0.00 88 1008.5
20260505220831 13 70 4.8 6.4 0.00 0.74 0.00 94 1012.6
20260505220828 14 234 3.2 4.8 0.10 6.25 0.00 95 1010.1
20260505220820 11 121 0.0 0.0 0.00 0.48 0.00 94 1011.7
20260505220816 15 155 0.0 0.0 0.00 0.00 0.00 78 1013.5
20260505220812 14 194 0.0 1.6 0.00 0.23 0.00 89 1012.1
20260505220401 15 249 1.6 4.8 0.00 0.15 0.00 87 1013.4
20260505220344 16 202 6.4 14.5 0.00 0.00 0.00 83 1012.7
20260505220342 16 91 0.0 0.0 0.00 5.97 0.00 94 1010.5
20260505220333 10 296 6.4 6.4 0.00 0.86 0.00 88 1008.4
20260505220331 13 68 3.2 4.8 0.00 0.74 0.00 94 1012.8
20260505220328 14 252 0.0 4.8 0.38 6.22 0.00 94 1010.1
20260505220322 11 121 0.0 0.0 0.00 0.48 0.00 94 1011.7
20260505220316 15 155 0.0 0.0 0.00 0.00 0.00 78 1013.5
20260505220312 13 194 0.0 1.6 0.00 0.23 0.00 90 1012.1
20260505215844 16 186 8.0 12.9 0.00 0.00 0.00 82 1012.7
20260505215841 15 249 3.2 6.4 0.00 0.15 0.00 87 1013.2
20260505215835 14 249 3.2 6.4 0.56 6.22 0.00 94 1010.3
20260505215833 10 296 3.2 6.4 0.00 0.86 0.00 88 1008.5
20260505215831 13 67 1.6 3.2 0.00 0.74 0.00 94 1012.8
20260505215819 11 121 0.0 0.0 0.00 0.48 0.00 94 1011.6
20260505215813 13 194 1.6 4.8 0.00 0.23 0.00 89 1012.2
20260505215344 16 217 4.8 17.7 0.00 0.00 0.00 82 1012.8
20260505215342 15 249 4.8 8.0 0.00 0.15 0.00 87 1013.4
20260505215336 10 296 4.8 4.8 0.00 0.86 0.00 88 1008.5
20260505215334 14 251 4.8 6.4 0.69 6.22 0.00 94 1010.3
20260505215331 13 66 1.6 3.2 0.00 0.74 0.00 94 1012.8
20260505215328 11 121 0.0 0.0 0.00 0.48 0.00 94 1011.6
20260505215313 15 155 0.0 0.0 0.00 0.00 0.00 78 1013.5
20260505214846 15 249 6.4 8.0 0.00 0.15 0.00 87 1013.5
20260505214842 16 91 0.0 0.0 0.00 5.97 0.00 94 1010.6
20260505214834 13 66 1.6 4.8 0.00 0.74 0.00 94 1013.0
20260505214830 13 203 0.0 0.0 0.00 0.36 0.00 94 1011.6
20260505214828 14 247 0.0 3.2 0.97 6.20 0.00 95 1010.3
20260505214822 11 121 0.0 0.0 0.00 0.48 0.00 94 1011.7
20260505214816 15 155 0.0 0.0 0.00 0.00 0.00 77 1013.5
20260505214812 13 111 3.2 3.2 0.00 0.23 0.00 89 1012.2
20260505214347 17 191 3.2 12.9 0.00 0.00 0.00 82 1012.7
20260505214341 15 249 6.4 6.4 0.00 0.15 0.00 86 1013.5
20260505214339 10 297 4.8 4.8 0.00 0.86 0.00 88 1008.6
20260505214333 13 203 0.0 0.0 0.00 0.36 0.00 94 1011.7
20260505214331 14 246 0.0 4.8 1.47 6.20 0.00 94 1010.8
20260505214322 11 139 0.0 0.0 0.00 0.48 0.00 94 1011.7
20260505214315 13 111 0.0 3.2 0.00 0.23 0.00 89 1012.2
20260505214313 15 154 0.0 0.0 0.00 0.00 0.00 77 1013.5
20260505213842 17 190 4.8 14.5 0.00 0.00 0.00 82 1012.8
20260505213838 15 249 4.8 4.8 0.00 0.15 0.00 86 1013.6
20260505213836 12 203 0.0 0.0 0.00 0.36 0.00 94 1011.7
20260505213831 13 66 0.0 3.2 0.00 0.74 0.00 94 1013.1
20260505213828 14 252 0.0 3.2 1.80 6.20 0.00 94 1010.8
20260505213819 11 146 0.0 0.0 0.00 0.48 0.00 94 1011.7
20260505213813 15 141 0.0 0.0 0.00 0.00 0.00 77 1013.5
20260505213342 16 91 0.0 0.0 0.00 5.97 0.00 94 1010.9
20260505213340 15 249 1.6 4.8 0.00 0.15 0.00 85 1013.7
20260505213337 13 66 3.2 4.8 0.00 0.74 0.00 94 1013.2
20260505213333 10 297 3.2 4.8 0.00 0.86 0.00 88 1008.7
20260505213331 14 247 0.0 4.8 1.98 6.20 0.00 94 1010.8
20260505213322 11 148 0.0 0.0 0.00 0.48 0.00 94 1011.8
20260505213313 15 141 0.0 0.0 0.00 0.00 0.00 76 1013.6
20260505212850 17 197 11.3 12.9 0.00 0.00 0.00 81 1012.8
20260505212844 15 249 0.0 3.2 0.00 0.15 0.00 85 1013.8
20260505212836 12 203 0.0 0.0 0.00 0.36 0.00 93 1011.8
20260505212833 10 297 3.2 4.8 0.00 0.86 0.00 88 1008.7
20260505212831 13 67 3.2 6.4 0.00 0.74 0.00 94 1013.1
20260505212828 14 286 3.2 4.8 2.18 6.20 0.00 94 1010.8
20260505212820 11 149 0.0 0.0 0.00 0.48 0.00 94 1011.9
20260505212818 13 83 0.0 4.8 0.00 0.23 0.00 89 1012.3
20260505212813 15 86 0.0 0.0 0.00 0.00 0.00 77 1013.6
20260505212344 17 178 6.4 14.5 0.00 0.00 0.00 81 1012.8
20260505212338 15 249 0.0 3.2 0.00 0.15 0.00 85 1013.8
20260505212335 15 67 1.6 6.4 2.29 6.20 0.00 94 1010.8
20260505212333 10 297 4.8 4.8 0.00 0.86 0.00 88 1008.8
20260505212330 12 203 0.0 0.0 0.00 0.36 0.00 93 1011.8
20260505212322 12 149 0.0 0.0 0.00 0.48 0.00 94 1011.8
20260505212318 13 83 4.8 6.4 0.00 0.23 0.00 89 1012.4
20260505212313 15 75 0.0 0.0 0.00 0.00 0.00 78 1013.7
20260505211850 17 214 8.0 14.5 0.00 0.00 0.00 81 1012.8
20260505211847 17 120 0.0 0.0 0.00 5.94 0.00 94 1011.0
20260505211844 15 249 1.6 4.8 0.00 0.15 0.00 84 1013.7
20260505211839 10 297 4.8 4.8 0.00 0.86 0.00 88 1008.8
20260505211834 13 83 1.6 4.8 0.00 0.74 0.00 94 1013.2
20260505211830 13 203 0.0 0.0 0.00 0.36 0.00 93 1011.8
20260505211828 15 242 1.6 4.8 2.36 6.20 0.00 94 1010.8
20260505211819 12 149 0.0 0.0 0.00 0.48 0.00 93 1011.8
20260505211813 15 51 0.0 0.0 0.00 0.00 0.00 81 1013.7
20260505211341 17 205 6.4 12.9 0.00 0.00 0.00 81 1012.8
20260505211339 10 297 3.2 4.8 0.00 0.86 0.00 88 1008.8
20260505211333 13 203 0.0 0.0 0.00 0.36 0.00 93 1011.8
20260505211331 13 84 4.8 8.0 0.00 0.74 0.00 94 1013.4
20260505211328 15 234 4.8 9.7 2.44 6.20 0.00 94 1010.9
20260505211319 12 148 0.0 0.0 0.00 0.48 0.00 93 1011.8
20260505211316 15 25 0.0 0.0 0.00 0.00 0.00 82 1013.7
20260505210841 15 249 0.0 1.6 0.00 0.15 0.00 82 1013.8
20260505210834 13 67 1.6 8.0 0.00 0.74 0.00 93 1013.4
20260505210831 15 36 8.0 11.3 2.39 6.15 0.00 95 1010.9
20260505210822 12 148 0.0 0.0 0.00 0.48 0.00 93 1011.8
20260505210813 15 11 0.0 0.0 0.00 0.00 0.00 82 1013.8
20260505210347 17 119 0.0 0.0 0.00 5.94 0.00 94 1011.0
20260505210341 17 193 3.2 14.5 0.00 0.00 0.00 80 1012.8
20260505210338 15 249 1.6 1.6 0.00 0.15 0.00 82 1013.7
20260505210330 13 203 0.0 0.0 0.00 0.36 0.00 93 1011.9
20260505210319 12 148 0.0 0.0 0.00 0.48 0.00 93 1011.9
20260505210316 15 11 0.0 0.0 0.00 0.00 0.00 83 1013.8
20260505210312 14 206 0.0 3.2 0.00 0.23 0.00 88 1012.5
20260505205843 10 297 3.2 4.8 0.00 0.86 0.00 88 1008.9
20260505205841 15 249 0.0 1.6 0.00 0.15 0.00 82 1013.7
20260505205834 13 86 4.8 6.4 0.00 0.74 0.00 93 1013.4
20260505205830 13 203 0.0 0.0 0.00 0.36 0.00 93 1011.8
20260505205819 12 148 0.0 0.0 0.00 0.48 0.00 93 1012.0
20260505205813 15 328 0.0 0.0 0.00 0.00 0.00 84 1013.7
20260505205344 17 205 12.9 12.9 0.00 0.00 0.00 80 1013.0
20260505205338 15 249 0.0 0.0 0.00 0.15 0.00 81 1013.7
20260505205334 13 105 3.2 9.7 0.00 0.74 0.00 93 1013.4
20260505205328 15 40 1.6 4.8 1.78 5.54 0.00 94 1010.8
20260505205319 12 148 0.0 0.0 0.00 0.48 0.00 93 1012.0
20260505205313 15 330 0.0 0.0 0.00 0.00 0.00 84 1013.7
20260505204842 17 119 0.0 0.0 0.00 5.94 0.00 94 1011.1
20260505204838 15 249 0.0 3.2 0.00 0.15 0.00 81 1013.7
20260505204835 15 284 3.2 6.4 1.47 5.23 0.00 94 1010.8
20260505204833 10 297 3.2 4.8 0.00 0.86 0.00 88 1008.9
20260505204831 13 105 3.2 12.9 0.00 0.74 0.00 93 1013.3
20260505204823 12 148 0.0 0.0 0.00 0.48 0.00 93 1011.9
20260505204816 15 335 0.0 6.4 0.00 0.00 0.00 83 1013.6
20260505204350 17 193 8.0 11.3 0.00 0.00 0.00 79 1012.9
20260505204344 15 249 1.6 3.2 0.00 0.15 0.00 81 1013.7
20260505204339 13 203 0.0 0.0 0.00 0.36 0.00 93 1011.9
20260505204334 13 83 3.2 8.0 0.00 0.74 0.00 93 1013.3
20260505204328 12 149 0.0 0.0 0.00 0.48 0.00 93 1012.0
20260505204319 15 322 4.8 6.4 0.00 0.00 0.00 84 1013.6
20260505203841 15 249 0.0 3.2 0.00 0.15 0.00 80 1013.8
20260505203834 13 96 3.2 6.4 0.00 0.74 0.00 93 1013.4
20260505203830 13 203 0.0 0.0 0.00 0.36 0.00 93 1011.8
20260505203819 12 149 0.0 0.0 0.00 0.48 0.00 93 1012.0
20260505203813 14 6 0.0 0.0 0.00 0.00 0.00 84 1013.7
20260505203342 17 119 0.0 0.0 0.00 5.94 0.00 93 1011.2
20260505203334 10 298 3.2 4.8 0.00 0.86 0.00 88 1008.8
20260505203331 13 110 3.2 9.7 0.00 0.74 0.00 93 1013.3
20260505203322 12 149 0.0 0.0 0.00 0.48 0.00 93 1012.0
20260505203313 14 332 0.0 6.4 0.00 0.00 0.00 84 1013.9
20260505202843 15 249 3.2 3.2 0.00 0.15 0.00 78 1013.7
20260505202837 13 61 4.8 11.3 0.00 0.74 0.00 92 1013.3
20260505202830 13 203 0.0 0.0 0.00 0.36 0.00 93 1011.8
20260505202828 15 59 1.6 1.6 0.41 4.01 0.00 94 1010.4
20260505202822 12 149 0.0 0.0 0.00 0.48 0.00 93 1012.0
20260505202819 14 18 0.0 1.6 0.00 0.00 0.00 84 1014.0
20260505202812 14 142 1.6 1.6 0.00 0.23 0.00 87 1012.4
20260505202341 17 179 11.3 16.1 0.00 0.00 0.00 78 1012.9
20260505202338 15 249 0.0 8.0 0.00 0.15 0.00 79 1013.7
20260505202334 10 298 3.2 4.8 0.00 0.86 0.00 88 1008.7
20260505202331 15 59 0.0 4.8 0.33 3.91 0.00 94 1010.4
20260505202325 12 149 0.0 0.0 0.00 0.48 0.00 93 1012.0
20260505202319 14 333 0.0 0.0 0.00 0.00 0.00 83 1014.0
20260505202312 14 142 0.0 3.2 0.00 0.23 0.00 87 1012.6
20260505201842 17 119 0.0 0.0 0.00 5.94 0.00 93 1011.3
20260505201839 10 298 3.2 4.8 0.00 0.86 0.00 88 1008.7
20260505201831 14 75 11.3 11.3 0.00 0.74 0.00 92 1013.3
20260505201828 15 59 1.6 3.2 0.28 3.84 0.00 94 1010.4
20260505201820 12 149 0.0 0.0 0.00 0.48 0.00 93 1012.2
20260505201815 14 142 1.6 3.2 0.00 0.23 0.00 87 1012.6
20260505201813 15 306 0.0 1.6 0.00 0.00 0.00 82 1013.9
20260505201344 17 231 3.2 14.5 0.00 0.00 0.00 77 1013.0
20260505201339 15 249 4.8 8.0 0.00 0.15 0.00 81 1013.8
20260505201334 14 107 9.7 12.9 0.00 0.74 0.00 92 1013.2
20260505201313 15 351 0.0 1.6 0.00 0.00 0.00 82 1013.9
20260505200844 15 249 4.8 6.4 0.00 0.15 0.00 82 1013.8
20260505200840 14 117 3.2 9.7 0.00 0.74 0.00 92 1013.2
20260505200836 10 300 3.2 4.8 0.00 0.86 0.00 87 1008.8
20260505200819 15 36 0.0 0.0 0.00 0.00 0.00 82 1014.0
20260505200812 14 142 1.6 3.2 0.00 0.23 0.00 87 1012.6
20260505200345 17 119 0.0 1.6 0.00 5.94 0.00 93 1011.2
20260505200341 15 249 4.8 4.8 0.00 0.15 0.00 82 1013.9
20260505200339 10 321 1.6 3.2 0.00 0.86 0.00 87 1008.7
20260505200337 14 87 4.8 6.4 0.00 0.74 0.00 92 1013.3
20260505200333 13 203 1.6 3.2 0.00 0.36 0.00 93 1011.8
20260505200321 14 142 3.2 4.8 0.00 0.23 0.00 87 1012.7
20260505200319 12 149 0.0 0.0 0.00 0.48 0.00 93 1012.0
20260505200313 15 29 0.0 0.0 0.00 0.00 0.00 83 1014.0
20260505195842 17 194 4.8 14.5 0.00 0.00 0.00 75 1013.1
20260505195839 15 133 3.2 4.8 0.20 3.76 0.00 94 1010.1
20260505195833 10 321 1.6 1.6 0.00 0.86 0.00 87 1008.7
20260505195831 14 74 3.2 8.0 0.00 0.74 0.00 91 1013.2
20260505195819 14 43 0.0 0.0 0.00 0.00 0.00 83 1013.9
20260505195815 14 142 4.8 4.8 0.00 0.23 0.00 87 1012.6
20260505195341 16 249 4.8 14.5 0.00 0.15 0.00 79 1013.9
20260505195339 13 203 1.6 3.2 0.00 0.36 0.00 93 1011.8
20260505195337 10 321 0.0 4.8 0.00 0.86 0.00 87 1008.7
20260505195331 15 89 4.8 9.7 0.00 0.74 0.00 91 1013.2
20260505195325 12 149 0.0 0.0 0.00 0.48 0.00 93 1011.9
20260505195322 14 30 0.0 0.0 0.00 0.00 0.00 83 1013.8
20260505195315 14 142 0.0 0.0 0.00 0.23 0.00 87 1012.4
20260505194845 17 201 3.2 12.9 0.00 0.00 0.00 74 1012.9
20260505194842 17 175 0.0 0.0 0.15 5.94 0.00 93 1011.2
20260505194838 15 261 9.7 14.5 0.00 0.15 0.00 79 1013.9
20260505194833 13 203 0.0 1.6 0.00 0.36 0.00 92 1011.8
20260505194831 15 59 8.0 8.0 0.00 0.74 0.00 91 1013.3
20260505194819 12 149 0.0 3.2 0.00 0.48 0.00 93 1011.8
20260505194815 14 195 0.0 0.0 0.00 0.23 0.00 87 1012.4
20260505194813 14 141 0.0 0.0 0.00 0.00 0.00 84 1013.8
20260505194344 15 263 11.3 12.9 0.00 0.15 0.00 79 1013.8
20260505194341 17 207 8.0 9.7 0.00 0.00 0.00 73 1012.9
20260505194336 10 325 4.8 8.0 0.00 0.86 0.00 87 1008.7
20260505194331 15 76 3.2 8.0 0.00 0.74 0.00 91 1013.1
20260505194325 12 149 1.6 3.2 0.00 0.48 0.00 93 1012.0
20260505194316 14 141 0.0 0.0 0.00 0.00 0.00 84 1013.9
20260505193848 17 174 6.4 12.9 0.00 0.00 0.00 73 1012.9
20260505193838 15 176 3.2 4.8 0.00 0.15 0.00 82 1013.7
20260505193833 11 319 4.8 8.0 0.00 0.86 0.00 87 1008.8
20260505193831 15 71 3.2 9.7 0.00 0.74 0.00 91 1013.0
20260505193824 12 150 0.0 1.6 0.00 0.48 0.00 93 1012.0
20260505193819 14 141 0.0 0.0 0.00 0.00 0.00 84 1013.8
20260505193344 15 177 1.6 8.0 0.00 0.15 0.00 83 1013.6
20260505193342 17 151 0.0 0.0 0.18 5.94 0.00 92 1011.1
20260505193334 15 57 8.0 12.9 0.00 0.74 0.00 90 1013.1
20260505193330 13 203 0.0 1.6 0.00 0.36 0.00 92 1011.8
20260505193319 12 150 0.0 3.2 0.00 0.48 0.00 93 1012.0
20260505193313 14 141 0.0 0.0 0.00 0.00 0.00 83 1013.7
20260505192843 15 109 1.6 8.0 0.00 0.74 0.00 90 1013.1
20260505192838 15 152 4.8 4.8 0.00 0.15 0.00 84 1013.6
20260505192836 13 203 0.0 1.6 0.00 0.36 0.00 92 1011.8
20260505192833 11 329 3.2 6.4 0.00 0.86 0.00 87 1008.8
20260505192822 12 150 0.0 0.0 0.00 0.48 0.00 92 1012.0
20260505192813 15 141 0.0 0.0 0.00 0.00 0.00 83 1013.6
20260505192344 17 193 6.4 12.9 0.00 0.00 0.00 71 1012.8
20260505192339 15 107 0.0 0.0 0.00 0.15 0.00 84 1013.5
20260505192336 11 325 1.6 6.4 0.00 0.86 0.00 87 1008.8
20260505192334 15 57 0.0 6.4 0.00 0.74 0.00 90 1012.9
20260505192331 15 197 0.0 3.2 0.05 3.58 0.00 93 1009.9
20260505192319 12 150 0.0 0.0 0.00 0.48 0.00 92 1011.8
20260505192312 14 195 0.0 1.6 0.00 0.23 0.00 88 1012.3
20260505191842 17 279 0.0 0.0 0.18 5.94 0.00 92 1011.0
20260505191834 11 0 1.6 6.4 0.00 0.86 0.00 87 1008.8
20260505191831 15 55 1.6 6.4 0.00 0.74 0.00 90 1012.9
20260505191828 15 197 0.0 1.6 0.03 3.56 0.00 93 1009.9
20260505191823 12 150 0.0 0.0 0.03 0.48 0.00 93 1011.9
20260505191813 15 141 0.0 0.0 0.00 0.00 0.00 82 1013.7
20260505191345 17 207 4.8 12.9 0.00 0.00 0.00 70 1012.7
20260505191343 11 321 3.2 4.8 0.00 0.86 0.00 87 1008.8
20260505191339 14 203 0.0 0.0 0.00 0.36 0.00 92 1011.7
20260505191335 15 198 1.6 1.6 0.00 3.53 0.00 93 1009.7
20260505191331 15 60 1.6 6.4 0.00 0.74 0.00 89 1012.9
20260505191322 12 150 0.0 0.0 0.05 0.48 0.00 93 1011.8
20260505191319 15 16 0.0 0.0 0.00 0.00 0.00 81 1013.6
20260505191315 14 195 1.6 3.2 0.00 0.23 0.00 88 1012.2
20260505190843 10 320 0.0 4.8 0.00 0.86 0.00 87 1008.7
20260505190841 18 195 6.4 11.3 0.00 0.00 0.00 70 1012.8
20260505190838 15 107 0.0 0.0 0.00 0.15 0.00 83 1013.5
20260505190834 15 59 3.2 8.0 0.00 0.74 0.00 89 1012.7
20260505190831 15 198 0.0 3.2 0.00 3.53 0.00 92 1009.7
20260505190826 12 150 0.0 1.6 0.05 0.48 0.00 93 1011.8
20260505190818 14 195 0.0 3.2 0.00 0.23 0.00 88 1012.2
20260505190813 15 344 0.0 0.0 0.00 0.00 0.00 81 1013.5
20260505190347 15 107 0.0 0.0 0.00 0.15 0.00 83 1013.5
20260505190345 18 202 0.0 0.0 0.18 5.94 0.00 90 1010.8
20260505190334 15 198 1.6 3.2 0.00 3.53 0.00 92 1009.7
20260505190331 15 75 3.2 6.4 0.00 0.74 0.00 89 1012.7
20260505190319 12 150 0.0 1.6 0.05 0.48 0.00 93 1011.8
20260505190315 14 195 1.6 3.2 0.00 0.23 0.00 88 1012.2
20260505190313 15 312 0.0 6.4 0.00 0.00 0.00 80 1013.3
20260505185847 15 107 0.0 4.8 0.00 0.15 0.00 82 1013.5
20260505185844 18 204 3.2 11.3 0.00 0.00 0.00 69 1012.8
20260505185834 15 77 0.0 8.0 0.00 0.74 0.00 89 1012.7
20260505185831 15 161 1.6 3.2 0.00 3.53 0.00 92 1009.7
20260505185822 12 150 0.0 1.6 0.05 0.48 0.00 93 1011.8
20260505185815 14 195 1.6 3.2 0.00 0.23 0.00 88 1012.2
20260505185813 15 320 0.0 4.8 0.00 0.00 0.00 81 1013.2
20260505185341 18 186 8.0 11.3 0.00 0.00 0.00 69 1012.8
20260505185338 15 107 0.0 3.2 0.00 0.15 0.00 82 1013.5
20260505185334 10 268 3.2 4.8 0.00 0.86 0.00 87 1008.6
20260505185331 15 65 4.8 8.0 0.00 0.74 0.00 89 1012.7
20260505185325 12 150 0.0 0.0 0.05 0.48 0.00 93 1011.7
20260505185313 15 328 0.0 3.2 0.00 0.00 0.00 81 1013.1
20260505184842 18 270 0.0 0.0 0.00 5.79 0.00 89 1010.8
20260505184838 15 107 1.6 9.7 0.00 0.15 0.00 81 1013.3
20260505184836 14 203 0.0 0.0 0.00 0.36 0.00 92 1011.6
20260505184834 15 161 0.0 1.6 0.08 3.53 0.00 92 1009.7
20260505184822 12 150 0.0 0.0 0.08 0.48 0.00 93 1011.7
20260505184813 15 312 0.0 0.0 0.00 0.00 0.00 81 1013.2
20260505184347 15 107 3.2 3.2 0.00 0.15 0.00 81 1013.3
20260505184342 10 324 3.2 8.0 0.00 0.86 0.00 87 1008.6
20260505184334 16 63 1.6 11.3 0.00 0.74 0.00 88 1012.6
20260505184331 15 161 0.0 1.6 0.10 3.53 0.00 92 1009.6
20260505184319 12 150 0.0 1.6 0.08 0.48 0.00 93 1011.7
20260505184313 15 8 0.0 0.0 0.00 0.00 0.00 81 1013.2
20260505183844 15 107 1.6 3.2 0.00 0.15 0.00 81 1013.2
20260505183841 18 186 8.0 11.3 0.00 0.00 0.00 69 1012.5
20260505183834 16 88 3.2 14.5 0.00 0.74 0.00 88 1012.6
20260505183832 15 161 1.6 3.2 0.10 3.53 0.00 92 1009.6
20260505183830 14 203 0.0 0.0 0.00 0.36 0.00 92 1011.6
20260505183824 12 149 0.0 1.6 0.08 0.48 0.00 92 1011.6
20260505183819 15 30 0.0 4.8 0.00 0.00 0.00 81 1013.3
20260505183347 15 107 0.0 3.2 0.00 0.15 0.00 81 1013.3
20260505183345 18 317 0.0 0.0 0.00 5.77 0.00 88 1010.8
20260505183342 18 204 4.8 14.5 0.00 0.00 0.00 70 1012.4
20260505183337 15 162 0.0 1.6 0.10 3.53 0.00 92 1009.6
20260505183331 16 68 0.0 8.0 0.00 0.74 0.00 87 1012.6
20260505183326 15 53 3.2 8.0 0.00 0.00 0.00 82 1013.2
20260505183323 12 149 1.6 3.2 0.08 0.48 0.00 92 1011.6
20260505183312 14 182 6.4 8.0 0.00 0.23 0.00 88 1012.0
20260505182841 15 107 1.6 6.4 0.00 0.15 0.00 82 1013.3
20260505182837 16 64 4.8 8.0 0.00 0.74 0.00 87 1012.6
20260505182834 15 161 0.0 1.6 0.10 3.53 0.00 92 1009.3
20260505182830 14 203 0.0 0.0 0.00 0.36 0.00 92 1011.4
20260505182821 14 201 4.8 6.4 0.00 0.23 0.00 88 1011.8
20260505182819 12 159 1.6 6.4 0.05 0.46 0.00 92 1011.5
20260505182815 15 36 6.4 8.0 0.00 0.00 0.00 81 1013.2
20260505182342 18 191 11.3 16.1 0.00 0.00 0.00 71 1012.4
20260505182339 11 323 3.2 4.8 0.00 0.86 0.00 88 1008.4
20260505182334 16 83 0.0 6.4 0.00 0.74 0.00 87 1012.6
20260505182328 15 162 0.0 0.0 0.18 3.53 0.00 92 1009.3
20260505182319 12 159 3.2 6.4 0.05 0.46 0.00 92 1011.5
20260505182317 15 25 6.4 8.0 0.00 0.00 0.00 81 1013.2
20260505182312 14 189 4.8 6.4 0.03 0.23 0.00 88 1011.8
20260505181847 18 201 11.3 14.5 0.00 0.00 0.00 71 1012.4
20260505181843 18 317 0.0 0.0 0.00 5.77 0.00 87 1010.8
20260505181840 15 67 0.0 9.7 0.00 0.15 0.00 83 1013.4
20260505181831 16 67 3.2 8.0 0.00 0.74 0.00 86 1012.4
20260505181828 15 162 0.0 0.0 0.18 3.53 0.00 91 1009.3
20260505181819 12 152 0.0 6.4 0.03 0.46 0.00 92 1011.4
20260505181815 14 182 1.6 4.8 0.03 0.23 0.00 88 1011.8
20260505181813 15 39 0.0 3.2 0.00 0.00 0.00 80 1013.2
20260505181345 18 175 6.4 16.1 0.00 0.00 0.00 72 1012.4
20260505181338 15 98 6.4 9.7 0.00 0.15 0.00 83 1013.4
20260505181334 16 162 0.0 3.2 0.18 3.53 0.00 91 1009.4
20260505181331 16 98 6.4 6.4 0.00 0.74 0.00 86 1012.4
20260505181321 14 124 1.6 8.0 0.03 0.23 0.00 88 1011.7
20260505181313 15 4 0.0 6.4 0.00 0.00 0.00 80 1013.3
20260505180844 18 172 6.4 16.1 0.00 0.00 0.00 71 1012.4
20260505180838 15 81 3.2 4.8 0.00 0.15 0.00 84 1013.4
20260505180835 11 336 1.6 6.4 0.00 0.86 0.00 88 1008.4
20260505180833 14 203 0.0 0.0 0.00 0.36 0.00 91 1011.2
20260505180831 16 63 6.4 9.7 0.00 0.74 0.00 85 1012.4
20260505180813 15 5 0.0 0.0 0.00 0.00 0.00 80 1013.3
20260505180344 18 202 4.8 16.1 0.00 0.00 0.00 71 1012.4
20260505180338 15 81 1.6 1.6 0.00 0.15 0.00 84 1013.4
20260505180334 16 48 8.0 9.7 0.00 0.74 0.00 85 1012.5
20260505180332 16 161 1.6 3.2 0.18 3.53 0.00 91 1009.4
20260505180330 14 203 0.0 0.0 0.00 0.36 0.00 91 1011.2
20260505180323 12 159 0.0 0.0 0.00 0.43 0.00 91 1011.3
20260505180319 15 53 0.0 0.0 0.00 0.00 0.00 79 1013.3
20260505180312 14 136 1.6 6.4 0.03 0.23 0.00 88 1011.6
20260505175844 18 181 9.7 17.7 0.00 0.00 0.00 71 1012.3
20260505175838 15 81 0.0 3.2 0.00 0.15 0.00 85 1013.4
20260505175833 11 331 1.6 4.8 0.00 0.86 0.00 88 1008.3
20260505175831 16 78 6.4 9.7 0.00 0.74 0.00 85 1012.4
20260505175828 16 157 1.6 3.2 0.18 3.53 0.00 91 1009.8
20260505175819 13 161 0.0 6.4 0.00 0.43 0.00 91 1011.4
20260505175815 14 72 3.2 14.5 0.03 0.23 0.00 88 1011.7
20260505175813 15 320 0.0 6.4 0.00 0.00 0.00 79 1013.3
20260505175348 18 188 6.4 19.3 0.00 0.00 0.00 70 1012.3
20260505175341 15 81 0.0 3.2 0.00 0.15 0.00 85 1013.4
20260505175336 13 158 0.0 0.0 0.00 0.43 0.00 90 1011.4
20260505175333 14 203 0.0 0.0 0.00 0.36 0.00 91 1011.2
20260505175331 16 80 6.4 12.9 0.00 0.74 0.00 85 1012.5
20260505175313 15 330 6.4 8.0 0.00 0.00 0.00 79 1013.3
20260505174846 18 316 0.0 0.0 0.00 5.77 0.00 85 1010.7
20260505174844 18 195 11.3 14.5 0.00 0.00 0.00 70 1012.4
20260505174839 11 311 3.2 8.0 0.00 0.86 0.00 88 1008.2
20260505174834 16 157 3.2 4.8 0.10 3.45 0.00 90 1009.8
20260505174831 17 67 8.0 9.7 0.00 0.74 0.00 85 1012.6
20260505174820 13 158 0.0 0.0 0.00 0.41 0.00 90 1011.4
20260505174816 15 320 0.0 6.4 0.00 0.00 0.00 79 1013.3
20260505174344 18 207 4.8 16.1 0.00 0.00 0.00 70 1012.3
20260505174338 15 81 6.4 8.0 0.00 0.15 0.00 84 1013.3
20260505174336 14 203 0.0 0.0 0.00 0.36 0.00 91 1011.2
20260505174328 16 48 1.6 3.2 0.05 3.40 0.00 90 1009.5
20260505174319 13 158 0.0 0.0 0.00 0.41 0.00 90 1011.3
20260505174315 15 123 6.4 14.5 0.05 0.23 0.00 87 1011.7
20260505174313 15 356 0.0 3.2 0.00 0.00 0.00 80 1013.3
20260505173844 18 203 9.7 16.1 0.00 0.00 0.00 70 1012.4
20260505173837 17 60 6.4 11.3 0.00 0.74 0.00 84 1012.3
20260505173833 14 203 0.0 0.0 0.00 0.36 0.00 91 1011.2
20260505173831 16 34 3.2 4.8 0.05 3.40 0.00 90 1009.5
20260505173820 13 158 0.0 1.6 0.00 0.41 0.00 90 1011.4
20260505173816 15 22 0.0 6.4 0.00 0.00 0.00 79 1013.3
20260505173812 15 178 9.7 17.7 0.03 0.20 0.00 87 1011.8
20260505173346 18 300 0.0 0.0 0.00 5.77 0.00 84 1010.7
20260505173341 18 169 12.9 16.1 0.00 0.00 0.00 69 1012.4
20260505173338 15 87 6.4 6.4 0.00 0.15 0.00 84 1013.3
20260505173333 11 323 4.8 8.0 0.00 0.86 0.00 88 1008.1
20260505173330 15 203 0.0 0.0 0.00 0.36 0.00 91 1011.2
20260505173322 13 161 0.0 6.4 0.00 0.41 0.00 90 1011.4
20260505173314 16 308 0.0 4.8 0.00 0.00 0.00 79 1013.4
20260505173312 15 146 6.4 12.9 0.03 0.20 0.00 86 1011.8
20260505172843 15 63 4.8 4.8 0.00 0.15 0.00 84 1013.4
20260505172841 18 180 4.8 16.1 0.00 0.00 0.00 69 1012.6
20260505172833 14 203 0.0 0.0 0.03 0.36 0.00 90 1011.3
20260505172831 17 67 6.4 16.1 0.00 0.74 0.00 83 1012.3
20260505172824 13 161 3.2 6.4 0.00 0.41 0.00 90 1011.4
20260505172816 16 319 0.0 6.4 0.00 0.00 0.00 79 1013.3
20260505172812 15 163 3.2 8.0 0.03 0.20 0.00 86 1011.9
20260505172341 15 63 3.2 6.4 0.00 0.15 0.00 84 1013.4
20260505172339 10 337 6.4 6.4 0.00 0.86 0.00 88 1008.1
20260505172337 17 61 17.7 17.7 0.00 0.74 0.00 83 1012.3
20260505172330 14 203 0.0 0.0 0.00 0.36 0.00 90 1011.2
20260505172325 13 148 0.0 0.0 0.00 0.41 0.00 89 1011.4
20260505172318 15 126 3.2 11.3 0.00 0.18 0.00 85 1011.8
20260505172314 16 334 3.2 8.0 0.00 0.00 0.00 79 1013.3
20260505171844 18 266 0.0 0.0 0.00 5.77 0.00 85 1010.7
20260505171841 18 213 9.7 17.7 0.00 0.00 0.00 69 1012.6
20260505171838 15 59 4.8 6.4 0.00 0.15 0.00 83 1013.5
20260505171836 10 324 4.8 8.0 0.00 0.86 0.00 88 1008.1
20260505171833 15 203 0.0 0.0 0.00 0.36 0.00 90 1011.3
20260505171831 17 78 6.4 20.9 0.00 0.74 0.00 83 1012.2
20260505171827 13 148 0.0 0.0 0.00 0.41 0.00 89 1011.4
20260505171814 16 342 4.8 9.7 0.00 0.00 0.00 78 1013.2
20260505171812 15 155 9.7 14.5 0.00 0.18 0.00 85 1011.8
20260505171341 16 59 4.8 9.7 0.00 0.15 0.00 82 1013.5
20260505171334 16 175 4.8 4.8 0.05 3.35 0.00 89 1009.5
20260505171331 17 61 6.4 17.7 0.00 0.74 0.00 83 1012.2
20260505171324 13 153 0.0 0.0 0.00 0.41 0.00 88 1011.3
20260505171317 16 4 4.8 8.0 0.00 0.00 0.00 78 1013.2
20260505171312 15 140 3.2 14.5 0.00 0.18 0.00 85 1011.7
20260505170842 19 216 6.4 20.9 0.00 0.00 0.00 67 1012.6
20260505170838 16 54 9.7 11.3 0.00 0.15 0.00 80 1013.4
20260505170834 17 65 6.4 14.5 0.00 0.74 0.00 83 1012.2
20260505170828 16 135 1.6 4.8 0.05 3.35 0.00 88 1009.5
20260505170825 13 153 0.0 0.0 0.00 0.41 0.00 87 1011.3
20260505170814 16 302 0.0 4.8 0.00 0.00 0.00 77 1013.1
20260505170812 15 172 8.0 8.0 0.00 0.18 0.00 85 1011.7
20260505170348 19 195 20.9 20.9 0.00 0.00 0.00 68 1012.6
20260505170343 19 206 0.0 0.0 0.00 5.77 0.00 84 1010.8
20260505170338 16 103 6.4 11.3 0.00 0.15 0.00 79 1013.3
20260505170334 17 71 4.8 16.1 0.00 0.74 0.00 83 1012.2
20260505170330 15 203 0.0 0.0 0.05 0.36 0.00 90 1011.3
20260505170328 16 134 1.6 11.3 0.05 3.35 0.00 88 1009.5
20260505170325 13 153 0.0 0.0 0.00 0.41 0.00 87 1011.3
20260505170318 15 234 6.4 12.9 0.00 0.18 0.00 84 1011.7
20260505170314 16 283 0.0 9.7 0.00 0.00 0.00 77 1013.2
20260505165845 19 213 17.7 22.5 0.00 0.00 0.00 68 1012.5
20260505165838 16 136 4.8 6.4 0.00 0.15 0.00 78 1013.5
20260505165836 10 334 3.2 4.8 0.00 0.86 0.00 88 1008.1
20260505165831 16 181 1.6 8.0 0.05 3.35 0.00 87 1009.7
20260505165822 12 153 0.0 0.0 0.00 0.41 0.00 88 1011.3
20260505165814 16 281 1.6 9.7 0.00 0.00 0.00 77 1013.3
20260505165812 15 127 4.8 16.1 0.00 0.18 0.00 83 1011.8
20260505165344 19 229 11.3 20.9 0.00 0.00 0.00 66 1012.6
20260505165340 18 81 12.9 19.3 0.00 0.74 0.00 82 1012.2
20260505165338 16 61 6.4 12.9 0.00 0.15 0.00 77 1013.4
20260505165336 15 203 0.0 1.6 0.05 0.36 0.00 89 1011.4
20260505165333 10 355 3.2 6.4 0.00 0.86 0.00 88 1008.2
20260505165331 16 191 0.0 6.4 0.05 3.35 0.00 87 1009.7
20260505165323 13 153 0.0 0.0 0.00 0.41 0.00 89 1011.3
20260505165315 16 132 8.0 12.9 0.00 0.18 0.00 82 1011.8
20260505164846 19 133 0.0 0.0 0.00 5.77 0.00 85 1010.8
20260505164844 16 140 3.2 12.9 0.00 0.15 0.00 78 1013.4
20260505164836 10 355 4.8 9.7 0.00 0.86 0.00 88 1008.3
20260505164833 15 203 0.0 1.6 0.05 0.36 0.00 89 1011.4
20260505164831 16 171 1.6 9.7 0.05 3.35 0.00 87 1009.7
20260505164819 13 153 0.0 3.2 0.00 0.41 0.00 90 1011.4
20260505164814 16 316 0.0 11.3 0.00 0.00 0.00 77 1013.4
20260505164812 16 187 4.8 11.3 0.00 0.18 0.00 81 1011.7
20260505164344 20 210 8.0 20.9 0.00 0.00 0.00 64 1012.5
20260505164340 17 86 8.0 19.3 0.00 0.74 0.00 83 1012.3
20260505164336 15 203 0.0 3.2 0.05 0.36 0.00 89 1011.4
20260505164332 16 139 1.6 9.7 0.05 3.35 0.00 86 1009.9
20260505164319 13 153 1.6 4.8 0.00 0.41 0.00 91 1011.5
20260505164314 16 300 6.4 8.0 0.00 0.00 0.00 77 1013.4
20260505164312 16 136 6.4 9.7 0.00 0.18 0.00 81 1011.8
20260505163844 20 236 16.1 19.3 0.00 0.00 0.00 63 1012.5
20260505163838 16 126 1.6 9.7 0.00 0.15 0.00 79 1013.4
20260505163831 18 45 6.4 12.9 0.00 0.74 0.00 84 1012.3
20260505163828 16 117 8.0 17.7 0.05 3.35 0.00 84 1009.9
20260505163819 13 153 0.0 4.8 0.00 0.41 0.00 90 1011.5
20260505163814 16 320 6.4 9.7 0.00 0.00 0.00 77 1013.4
20260505163812 16 144 4.8 8.0 0.00 0.18 0.00 81 1011.7
20260505163347 20 222 11.3 17.7 0.00 0.00 0.00 63 1012.5
20260505163343 19 11 0.0 0.0 0.00 5.77 0.00 85 1010.8
20260505163338 16 101 4.8 12.9 0.00 0.15 0.00 79 1013.4
20260505163333 10 335 4.8 8.0 0.00 0.86 0.00 88 1008.3
20260505163331 18 102 3.2 16.1 0.00 0.74 0.00 83 1012.4
20260505163328 17 120 8.0 20.9 0.05 3.35 0.00 84 1009.9
20260505163323 16 282 4.8 9.7 0.00 0.00 0.00 77 1013.4
20260505163319 13 151 1.6 4.8 0.00 0.41 0.00 90 1011.6
20260505163312 16 107 4.8 9.7 0.00 0.18 0.00 81 1011.7
20260505162841 20 195 11.3 17.7 0.00 0.00 0.00 62 1012.4
20260505162838 16 58 9.7 12.9 0.00 0.15 0.00 80 1013.2
20260505162834 18 68 3.2 11.3 0.00 0.74 0.00 84 1012.4
20260505162829 18 110 19.3 20.9 0.05 3.35 0.00 83 1009.5
20260505162822 13 152 0.0 4.8 0.00 0.41 0.00 90 1011.7
20260505162817 16 319 0.0 9.7 0.00 0.00 0.00 77 1013.4
20260505162815 16 235 0.0 9.7 0.00 0.18 0.00 80 1011.8
20260505162345 20 193 14.5 19.3 0.00 0.00 0.00 61 1012.4
20260505162341 16 59 8.0 16.1 0.00 0.15 0.00 82 1013.3
20260505162334 17 113 6.4 16.1 0.00 0.74 0.00 84 1012.4
20260505162332 18 130 11.3 16.1 0.00 3.30 0.00 84 1009.5
20260505162320 16 302 6.4 8.0 0.00 0.00 0.00 77 1013.4
20260505162312 16 169 6.4 12.9 0.00 0.18 0.00 79 1011.8
20260505161846 20 208 12.9 20.9 0.00 0.00 0.00 60 1012.5
20260505161843 19 311 0.0 0.0 0.00 5.77 0.00 85 1010.9
20260505161841 16 48 9.7 17.7 0.00 0.15 0.00 82 1013.5
20260505161837 17 59 3.2 14.5 0.00 0.74 0.00 84 1012.4
20260505161834 10 34 3.2 6.4 0.00 0.86 0.00 89 1008.4
20260505161830 15 203 1.6 4.8 0.03 0.33 0.00 86 1011.4
20260505161820 16 299 3.2 6.4 0.00 0.00 0.00 79 1013.5
20260505161818 16 181 8.0 14.5 0.00 0.18 0.00 79 1011.7
20260505161343 16 65 9.7 11.3 0.00 0.15 0.00 82 1013.5
20260505161340 20 217 4.8 12.9 0.00 0.00 0.00 60 1012.6
20260505161334 10 327 6.4 6.4 0.00 0.86 0.00 88 1008.4
20260505161331 17 71 9.7 17.7 0.00 0.74 0.00 84 1012.3
20260505161319 13 153 0.0 0.0 0.00 0.41 0.00 87 1011.6
20260505161314 16 304 0.0 8.0 0.00 0.00 0.00 79 1013.5
20260505160842 20 215 6.4 20.9 0.00 0.00 0.00 58 1012.6
20260505160840 17 80 11.3 16.1 0.00 0.74 0.00 84 1012.3
20260505160838 15 101 4.8 12.9 0.00 0.15 0.00 82 1013.6
20260505160833 16 203 0.0 3.2 0.00 0.30 0.00 86 1011.4
20260505160822 13 153 0.0 0.0 0.00 0.41 0.00 87 1011.7
20260505160817 16 334 6.4 8.0 0.00 0.00 0.00 79 1013.6
20260505160815 16 148 6.4 14.5 0.00 0.18 0.00 79 1011.8
20260505160348 20 189 9.7 20.9 0.00 0.00 0.00 57 1012.6
20260505160346 19 292 0.0 0.0 0.00 5.77 0.00 84 1010.9
20260505160338 15 93 9.7 16.1 0.00 0.15 0.00 82 1013.6
20260505160334 10 14 3.2 11.3 0.00 0.86 0.00 88 1008.3
20260505160330 16 203 4.8 4.8 0.00 0.28 0.00 84 1011.5
20260505160328 19 150 4.8 12.9 0.00 3.30 0.00 81 1009.1
20260505160325 13 154 0.0 0.0 0.00 0.41 0.00 87 1011.6
20260505160315 16 180 3.2 6.4 0.00 0.18 0.00 78 1011.9
20260505153347 15 83 6.4 16.1 0.00 0.15 0.00 80 1013.8
20260505153345 19 314 0.0 0.0 0.00 5.77 0.00 85 1011.0
20260505153343 20 212 6.4 19.3 0.00 0.00 0.00 56 1012.7
20260505153334 10 14 8.0 11.3 0.00 0.86 0.00 88 1008.4
20260505153331 18 113 6.4 12.9 0.00 0.74 0.00 83 1012.4
20260505153329 18 175 3.2 14.5 0.00 3.30 0.00 83 1009.3
20260505153319 13 163 0.0 0.0 0.00 0.41 0.00 87 1011.7
20260505153317 17 32 3.2 4.8 0.00 0.00 0.00 78 1013.6
20260505153312 16 219 8.0 11.3 0.00 0.18 0.00 78 1011.9
20260505152847 15 63 9.7 14.5 0.00 0.15 0.00 80 1013.8
20260505152845 20 197 11.3 19.3 0.00 0.00 0.00 57 1012.8
20260505152834 10 30 4.8 6.4 0.00 0.84 0.00 88 1008.4
20260505152829 18 104 8.0 9.7 0.00 3.30 0.00 83 1009.3
20260505152820 13 163 0.0 0.0 0.00 0.41 0.00 89 1011.7
20260505152814 17 329 0.0 8.0 0.00 0.00 0.00 78 1013.5
20260505152812 16 178 8.0 16.1 0.00 0.18 0.00 79 1011.8
20260505152340 10 355 1.6 9.7 0.00 0.84 0.00 88 1008.3
20260505152338 15 73 11.3 17.7 0.00 0.15 0.00 80 1013.7
20260505152336 16 203 3.2 4.8 0.00 0.28 0.00 80 1011.4
20260505152332 18 176 4.8 16.1 0.00 3.30 0.00 83 1009.3
20260505152325 13 163 0.0 0.0 0.00 0.41 0.00 89 1011.7
20260505152318 16 165 6.4 6.4 0.00 0.18 0.00 79 1011.9
20260505152314 17 356 6.4 6.4 0.00 0.00 0.00 77 1013.5
20260505151846 19 266 0.0 0.0 0.00 5.77 0.00 85 1011.0
20260505151844 20 201 8.0 16.1 0.00 0.00 0.00 60 1012.8
20260505151838 15 54 9.7 16.1 0.00 0.15 0.00 79 1013.8
20260505151834 10 342 3.2 16.1 0.03 0.84 0.00 88 1008.2
20260505151832 18 119 9.7 19.3 0.00 3.30 0.00 83 1009.3
20260505151830 16 203 0.0 1.6 0.00 0.28 0.00 82 1011.4
20260505151824 13 163 0.0 0.0 0.00 0.41 0.00 89 1011.8
20260505151821 16 176 3.2 8.0 0.00 0.18 0.00 79 1011.9
20260505151817 17 319 0.0 6.4 0.00 0.00 0.00 77 1013.6
20260505151344 15 65 14.5 17.7 0.00 0.15 0.00 78 1013.8
20260505151341 20 184 8.0 17.7 0.00 0.00 0.00 59 1012.9
20260505151337 10 5 9.7 14.5 0.03 0.84 0.00 88 1008.1
20260505151334 18 110 6.4 11.3 0.00 0.74 0.00 81 1012.4
20260505151332 18 180 4.8 19.3 0.00 3.30 0.00 83 1009.4
20260505151330 16 203 0.0 4.8 0.00 0.28 0.00 80 1011.4
20260505151319 13 163 0.0 0.0 0.00 0.41 0.00 89 1011.8
20260505151314 17 326 1.6 9.7 0.00 0.00 0.00 76 1013.6
20260505151312 16 172 3.2 6.4 0.00 0.18 0.00 78 1011.9
20260505150844 15 64 16.1 16.1 0.00 0.15 0.00 77 1013.8
20260505150834 10 346 3.2 9.7 0.03 0.84 0.00 88 1008.1
20260505150831 18 65 4.8 12.9 0.00 0.74 0.00 81 1012.5
20260505150829 18 151 4.8 16.1 0.00 3.30 0.00 82 1009.4
20260505150821 16 227 3.2 3.2 0.00 0.18 0.00 79 1011.9
20260505150819 13 163 0.0 3.2 0.00 0.41 0.00 90 1011.8
20260505150344 20 212 8.0 17.7 0.00 0.00 0.00 60 1012.9
20260505150341 15 53 8.0 16.1 0.00 0.15 0.00 77 1013.7
20260505150337 18 84 3.2 8.0 0.00 0.74 0.00 82 1012.5
20260505150334 10 325 8.0 16.1 0.08 0.84 0.00 88 1008.1
20260505150330 16 203 0.0 0.0 0.00 0.28 0.00 83 1011.3
20260505150324 13 163 3.2 3.2 0.00 0.41 0.00 90 1011.8
20260505150317 17 357 4.8 8.0 0.00 0.00 0.00 75 1013.7
20260505150312 16 194 0.0 0.0 0.00 0.18 0.00 79 1011.9
20260505140351 18 331 0.0 0.0 0.00 5.77 0.00 90 1011.1
20260505140343 21 242 8.0 20.9 0.00 0.00 0.00 60 1013.1
20260505140341 16 67 12.9 24.1 0.00 0.15 0.00 72 1013.8
20260505140338 17 163 14.5 24.1 0.00 3.30 0.00 90 1009.5
20260505140334 10 355 14.5 17.7 0.00 0.76 0.00 88 1008.3
20260505140331 17 83 3.2 12.9 0.00 0.74 0.00 87 1012.7
20260505140322 12 98 0.0 0.0 0.05 0.38 0.00 90 1012.1
20260505140317 16 314 3.2 6.4 0.00 0.00 0.00 77 1013.7
20260505140312 16 180 0.0 0.0 0.00 0.18 0.00 78 1012.3
20260505130312 16 125 0.0 11.3 0.00 0.15 0.00 77 1012.8
20260505124846 17 106 0.0 8.0 1.09 5.77 0.00 94 1011.5
20260505124844 15 85 8.0 14.5 0.03 0.15 0.00 77 1014.5
20260505124840 23 271 3.2 17.7 0.00 0.00 0.00 53 1013.4
20260505124837 10 29 9.7 16.1 0.00 0.76 0.00 89 1008.9
20260505124831 17 109 9.7 16.1 0.00 0.74 0.00 86 1013.3
20260505124829 15 164 3.2 4.8 0.10 3.30 0.00 96 1010.1
20260505124822 14 167 4.8 6.4 0.00 0.33 0.00 88 1012.4
20260505124814 17 334 3.2 4.8 0.00 0.00 0.00 69 1014.1
20260505124812 16 179 12.9 14.5 0.00 0.15 0.00 74 1012.7
20260505124343 23 221 14.5 22.5 0.00 0.00 0.00 52 1013.4
20260505124341 15 68 9.7 14.5 0.03 0.15 0.00 76 1014.5
20260505124337 10 11 6.4 17.7 0.00 0.76 0.00 89 1008.9
20260505124334 17 78 4.8 12.9 0.00 0.74 0.00 87 1013.4
20260505124332 15 219 0.0 3.2 0.10 3.30 0.00 95 1010.5
20260505124320 14 171 6.4 6.4 0.03 0.33 0.00 89 1012.3
20260505124315 17 299 0.0 3.2 0.00 0.00 0.00 68 1014.0
20260505123849 23 212 14.5 22.5 0.00 0.00 0.00 48 1013.5
20260505123838 10 66 6.4 17.7 0.00 0.76 0.00 89 1008.9
20260505123836 15 38 0.0 0.0 0.03 0.28 0.00 86 1012.3
20260505123834 17 64 1.6 14.5 0.00 0.74 0.00 87 1013.4
20260505123832 15 217 1.6 3.2 0.08 3.28 0.00 96 1010.5
20260505123819 14 143 4.8 6.4 0.03 0.33 0.00 89 1012.2
20260505123817 17 280 0.0 6.4 0.00 0.00 0.00 69 1014.0
20260505123815 16 209 4.8 12.9 0.00 0.15 0.00 76 1012.9
20260505123346 16 111 3.2 9.7 1.07 5.74 0.00 92 1011.4
20260505123340 23 193 11.3 20.9 0.00 0.00 0.00 47 1013.6
20260505123338 16 53 8.0 17.7 0.03 0.15 0.00 76 1014.4
20260505123334 17 61 4.8 11.3 0.00 0.74 0.00 88 1013.3
20260505123329 15 215 3.2 3.2 0.10 3.28 0.00 96 1010.5
20260505123322 14 150 1.6 6.4 0.03 0.33 0.00 89 1012.3
20260505123318 17 314 1.6 6.4 0.00 0.00 0.00 68 1014.1
20260505123315 16 180 3.2 14.5 0.00 0.15 0.00 79 1012.8
20260505122847 16 65 12.9 17.7 0.03 0.15 0.00 76 1014.5
20260505122840 23 175 14.5 20.9 0.00 0.00 0.00 48 1013.6
20260505122837 10 69 12.9 17.7 0.08 0.76 0.00 89 1008.9
20260505122832 15 216 1.6 3.2 0.15 3.25 0.00 96 1010.8
20260505122830 14 143 0.0 4.8 0.05 0.33 0.00 89 1012.3
20260505122814 17 15 0.0 0.0 0.00 0.00 0.00 66 1014.1
20260505122812 16 134 4.8 16.1 0.00 0.15 0.00 79 1012.9
20260505122340 10 5 14.5 16.1 0.10 0.76 0.00 89 1008.9
20260505122338 16 74 12.9 17.7 0.03 0.15 0.00 76 1014.5
20260505122335 15 266 1.6 3.2 0.15 3.25 0.00 96 1010.7
20260505122330 15 38 1.6 1.6 0.03 0.28 0.00 87 1012.4
20260505122323 17 239 0.0 0.0 0.00 0.00 0.00 66 1014.1
20260505122312 16 157 11.3 17.7 0.00 0.15 0.00 80 1012.8
20260505121846 17 100 0.0 1.6 0.76 5.28 0.00 94 1011.5
20260505121840 10 355 8.0 16.1 0.18 0.76 0.00 89 1008.9
20260505121837 16 51 11.3 17.7 0.03 0.15 0.00 76 1014.5
20260505121835 15 267 1.6 3.2 0.20 3.25 0.00 96 1010.7
20260505121833 15 38 0.0 0.0 0.00 0.28 0.00 86 1012.4
20260505121822 14 137 0.0 0.0 0.08 0.33 0.00 88 1012.3
20260505121817 17 266 0.0 4.8 0.00 0.00 0.00 64 1014.2
20260505121812 16 157 1.6 9.7 0.00 0.15 0.00 80 1012.9
20260505121341 16 65 9.7 14.5 0.03 0.15 0.00 76 1014.5
20260505121334 10 67 6.4 11.3 0.18 0.76 0.00 89 1009.0
20260505121332 15 266 1.6 3.2 0.25 3.25 0.00 96 1010.6
20260505121330 15 38 0.0 0.0 0.00 0.28 0.00 87 1012.3
20260505121319 14 131 0.0 0.0 0.10 0.33 0.00 87 1012.4
20260505121317 17 264 0.0 0.0 0.00 0.00 0.00 64 1014.3
20260505121315 16 170 8.0 12.9 0.00 0.15 0.00 79 1012.7
20260505120841 23 200 16.1 22.5 0.00 0.00 0.00 46 1013.6
20260505120837 16 46 6.4 17.7 0.03 0.15 0.00 76 1014.5
20260505120834 10 78 4.8 14.5 0.18 0.76 0.00 89 1009.0
20260505120832 15 263 0.0 1.6 0.33 3.25 0.00 96 1010.6
20260505120830 15 39 0.0 0.0 0.00 0.25 0.00 87 1012.3
20260505120815 16 141 8.0 11.3 0.00 0.15 0.00 80 1012.8
20260505120347 16 69 17.7 19.3 0.03 0.15 0.00 77 1014.4
20260505120343 18 323 0.0 3.2 0.18 4.67 0.00 94 1011.4
20260505120340 23 194 6.4 22.5 0.00 0.00 0.00 46 1013.6
20260505120334 16 84 4.8 12.9 0.00 0.74 0.00 89 1013.6
20260505120330 14 263 0.0 4.8 0.36 3.25 0.00 95 1010.6
20260505120324 14 130 0.0 0.0 0.10 0.30 0.00 86 1012.4
20260505120321 16 209 9.7 9.7 0.00 0.15 0.00 80 1012.8
20260505120314 17 264 0.0 0.0 0.00 0.00 0.00 63 1014.3
20260505115845 23 179 8.0 24.1 0.00 0.00 0.00 46 1013.5
20260505115838 16 80 6.4 16.1 0.00 0.13 0.00 74 1014.6
20260505115835 14 273 1.6 3.2 0.41 3.25 0.00 95 1010.6
20260505115833 15 38 0.0 1.6 0.00 0.25 0.00 87 1012.4
20260505115830 14 130 0.0 3.2 0.10 0.30 0.00 85 1012.6
20260505115815 16 142 4.8 11.3 0.03 0.15 0.00 80 1012.8
20260505115341 16 47 6.4 16.1 0.00 0.13 0.00 74 1014.5
20260505115338 10 41 3.2 8.0 0.18 0.76 0.00 88 1009.1
20260505115334 16 96 3.2 12.9 0.00 0.74 0.00 89 1013.7
20260505115332 14 273 0.0 0.0 0.43 3.25 0.00 96 1010.6
20260505115319 13 95 3.2 4.8 0.13 0.30 0.00 83 1012.4
20260505115315 17 289 0.0 0.0 0.00 0.00 0.00 63 1014.3
20260505115312 16 153 6.4 11.3 0.03 0.15 0.00 82 1012.8
20260505114849 18 308 0.0 0.0 0.18 4.67 0.00 94 1011.5
20260505114843 10 49 4.8 11.3 0.18 0.76 0.00 88 1009.1
20260505114838 16 47 6.4 16.1 0.00 0.13 0.00 76 1014.6
20260505114835 14 273 0.0 0.0 0.38 3.20 0.00 95 1010.6
20260505114830 14 38 0.0 0.0 0.03 0.25 0.00 88 1012.4
20260505114827 14 84 1.6 3.2 0.15 0.30 0.00 84 1012.4
20260505114818 16 209 4.8 6.4 0.03 0.15 0.00 83 1012.8
20260505114816 17 264 0.0 4.8 0.00 0.00 0.00 66 1014.1
20260505114341 15 59 8.0 17.7 0.00 0.13 0.00 73 1014.5
20260505114334 10 40 4.8 11.3 0.15 0.74 0.00 88 1009.0
20260505114330 14 38 0.0 0.0 0.03 0.25 0.00 88 1012.4
20260505114322 14 81 1.6 3.2 0.13 0.28 0.00 85 1012.5
20260505114315 17 301 1.6 6.4 0.00 0.00 0.00 65 1014.1
20260505114312 16 182 6.4 9.7 0.05 0.15 0.00 83 1012.9
20260505113845 23 229 14.5 24.1 0.00 0.00 0.00 44 1013.6
20260505113838 15 75 6.4 14.5 0.00 0.13 0.00 75 1014.5
20260505113836 14 38 0.0 0.0 0.05 0.25 0.00 88 1012.4
20260505113834 10 23 4.8 17.7 0.15 0.74 0.00 88 1009.2
20260505113832 13 273 1.6 1.6 0.41 3.20 0.00 95 1010.7
20260505113826 14 80 0.0 4.8 0.15 0.28 0.00 86 1012.5
20260505113821 17 295 0.0 4.8 0.00 0.00 0.00 63 1014.2
20260505113815 16 148 3.2 6.4 0.05 0.15 0.00 85 1013.0
20260505113346 24 191 16.1 24.1 0.00 0.00 0.00 43 1013.5
20260505113343 18 305 0.0 1.6 0.18 4.67 0.00 94 1011.4
20260505113337 10 61 0.0 6.4 0.10 0.71 0.00 88 1009.2
20260505113331 15 123 4.8 11.3 0.00 0.74 0.00 89 1013.9
20260505113329 14 65 3.2 4.8 0.18 0.28 0.00 87 1012.4
20260505113321 15 167 0.0 6.4 0.05 0.15 0.00 84 1013.1
20260505113315 17 63 0.0 6.4 0.00 0.00 0.00 64 1014.3
20260505112845 24 217 6.4 27.4 0.00 0.00 0.00 42 1013.5
20260505112837 10 48 3.2 11.3 0.08 0.66 0.00 88 1009.1
20260505112833 14 38 0.0 1.6 0.08 0.25 0.00 89 1012.3
20260505112829 13 270 0.0 3.2 0.38 3.10 0.00 95 1010.8
20260505112822 14 113 1.6 3.2 0.18 0.28 0.00 86 1012.6
20260505112815 17 6 0.0 6.4 0.00 0.00 0.00 63 1014.2
20260505112812 15 167 4.8 6.4 0.08 0.15 0.00 84 1013.1
20260505112341 16 53 11.3 16.1 0.00 0.13 0.00 73 1014.5
20260505112334 15 117 4.8 11.3 0.00 0.74 0.00 90 1013.9
20260505112329 13 265 1.6 3.2 0.38 3.07 0.00 95 1010.8
20260505112319 14 113 1.6 4.8 0.15 0.25 0.00 87 1012.6
20260505112315 15 165 3.2 6.4 0.08 0.15 0.00 85 1013.1
20260505111846 18 326 0.0 0.0 0.00 4.50 0.00 95 1011.4
20260505111840 24 212 12.9 29.0 0.00 0.00 0.00 42 1013.4
20260505111835 10 30 8.0 12.9 0.00 0.58 0.00 88 1009.0
20260505111832 13 263 0.0 3.2 0.36 3.02 0.00 95 1010.8
20260505111830 14 38 0.0 0.0 0.10 0.25 0.00 89 1012.5
20260505111822 14 86 0.0 3.2 0.15 0.23 0.00 85 1012.5
20260505111818 17 359 0.0 4.8 0.00 0.00 0.00 65 1014.2
20260505111815 15 167 1.6 6.4 0.08 0.15 0.00 85 1013.2
20260505111344 16 58 6.4 14.5 0.00 0.13 0.00 71 1014.5
20260505111338 13 263 0.0 3.2 0.30 2.97 0.00 95 1010.6
20260505111333 14 38 0.0 4.8 0.10 0.25 0.00 89 1012.4
20260505111321 15 150 4.8 8.0 0.08 0.13 0.00 83 1013.3
20260505111319 14 50 0.0 8.0 0.15 0.20 0.00 86 1012.4
20260505110840 24 170 19.3 29.0 0.00 0.00 0.00 45 1013.4
20260505110838 16 90 6.4 11.3 0.00 0.13 0.00 73 1014.5
20260505110835 11 49 8.0 9.7 0.00 0.58 0.00 88 1008.9
20260505110830 14 38 0.0 4.8 0.13 0.25 0.00 90 1012.4
20260505110822 14 33 3.2 8.0 0.15 0.18 0.00 87 1012.5
20260505110818 16 258 0.0 6.4 0.00 0.00 0.00 66 1014.3
20260505110346 18 297 0.0 0.0 0.00 4.50 0.00 95 1011.4
20260505110341 16 74 8.0 12.9 0.00 0.13 0.00 74 1014.5
20260505110334 11 338 6.4 14.5 0.00 0.58 0.00 88 1008.8
20260505110332 13 264 1.6 3.2 0.23 2.87 0.00 95 1010.6
20260505110330 14 38 3.2 4.8 0.13 0.25 0.00 90 1012.5
20260505110322 14 85 1.6 6.4 0.15 0.18 0.00 89 1012.6
20260505110315 16 4 4.8 11.3 0.00 0.00 0.00 64 1014.1
20260505101844 15 67 6.4 12.9 0.00 0.13 0.00 71 1014.3
20260505101841 24 200 4.8 25.7 0.00 0.00 0.00 50 1013.4
20260505101833 14 207 3.2 8.0 0.03 0.13 0.00 87 1012.7
20260505101831 15 74 3.2 11.3 0.00 0.74 0.00 93 1014.0
20260505101822 14 87 1.6 9.7 0.05 0.08 0.00 86 1012.7
20260505101812 15 218 0.0 0.0 0.05 0.08 0.00 79 1013.3
20260505101343 25 203 14.5 25.7 0.00 0.00 0.00 49 1013.3
20260505101338 15 68 4.8 9.7 0.00 0.13 0.00 73 1014.3
20260505101334 11 17 4.8 14.5 0.18 0.56 0.00 88 1008.8
20260505101331 14 50 4.8 6.4 0.00 0.74 0.00 93 1013.9
20260505101329 13 211 3.2 3.2 0.23 2.64 0.00 95 1010.4
20260505101319 14 78 6.4 9.7 0.03 0.05 0.00 85 1012.7
20260505101315 15 157 0.0 0.0 0.03 0.05 0.00 79 1013.2
20260505100844 24 236 6.4 24.1 0.00 0.00 0.00 50 1013.4
20260505100838 13 211 4.8 4.8 0.25 2.64 0.00 95 1010.4
20260505100834 11 340 6.4 14.5 0.20 0.56 0.00 88 1008.8
20260505100831 14 71 3.2 6.4 0.00 0.74 0.00 93 1014.1
20260505100828 15 108 1.6 9.7 0.00 0.03 0.00 85 1012.6
20260505100815 17 86 0.0 6.4 0.00 0.00 0.00 70 1014.1
20260505100812 15 232 0.0 1.6 0.03 0.05 0.00 79 1013.2
20260505100344 15 50 1.6 9.7 0.00 0.13 0.00 71 1014.4
20260505100340 24 161 8.0 27.4 0.00 0.00 0.00 48 1013.3
20260505100334 11 307 11.3 11.3 0.23 0.56 0.00 88 1008.9
20260505100332 12 163 3.2 4.8 0.28 2.62 0.00 95 1010.4
20260505100330 15 214 0.0 4.8 0.05 0.10 0.00 86 1012.4
20260505100315 16 357 3.2 9.7 0.00 0.00 0.00 68 1014.3
20260505100312 15 210 0.0 0.0 0.00 0.03 0.00 77 1013.2
20260505095843 25 183 16.1 20.9 0.00 0.00 0.00 46 1013.2
20260505095840 15 51 8.0 8.0 0.00 0.13 0.00 73 1014.4
20260505095837 10 319 9.7 14.5 0.25 0.56 0.00 88 1008.9
20260505095833 15 214 0.0 4.8 0.05 0.10 0.00 86 1012.3
20260505095831 14 70 3.2 4.8 0.00 0.74 0.00 93 1014.1
20260505095821 15 324 0.0 9.7 0.00 0.00 0.00 71 1014.1
20260505095812 15 210 0.0 0.0 0.00 0.03 0.00 75 1013.3
20260505095810 15 154 1.6 4.8 0.00 0.03 0.00 83 1012.6
20260505095341 10 0 8.0 17.7 0.28 0.56 0.00 88 1008.9
20260505095333 14 214 4.8 9.7 0.08 0.10 0.00 85 1012.4
20260505095331 14 0 1.6 1.6 0.00 0.74 0.00 94 1014.1
20260505095321 15 207 0.0 0.0 0.00 0.03 0.00 76 1013.1
20260505095315 15 323 3.2 16.1 0.00 0.00 0.00 74 1013.9
20260505095307 15 118 1.6 4.8 0.03 0.03 0.00 84 1012.6
20260505094847 16 300 0.0 0.0 2.06 4.45 0.00 95 1011.4
20260505094843 24 203 8.0 20.9 0.00 0.00 0.00 44 1013.2
20260505094841 15 55 4.8 8.0 0.00 0.13 0.00 76 1014.5
20260505094835 10 350 9.7 16.1 0.28 0.56 0.00 88 1008.9
20260505094831 13 0 0.0 3.2 0.00 0.74 0.00 94 1014.1
20260505094829 12 249 1.6 4.8 0.23 2.57 0.00 95 1010.6
20260505094815 15 313 8.0 12.9 0.00 0.00 0.00 75 1013.9
20260505094812 15 206 0.0 0.0 0.03 0.03 0.00 76 1013.2
20260505094810 15 157 3.2 3.2 0.03 0.03 0.00 84 1012.5
20260505094341 15 74 3.2 4.8 0.00 0.13 0.00 79 1014.5
20260505094334 10 15 6.4 16.1 0.28 0.53 0.00 88 1009.0
20260505094331 13 0 1.6 4.8 0.00 0.74 0.00 93 1014.2
20260505094321 15 96 0.0 1.6 0.03 0.03 0.00 75 1013.2
20260505094315 15 302 6.4 8.0 0.00 0.00 0.00 75 1014.1
20260505094307 15 156 0.0 4.8 0.03 0.03 0.00 84 1012.4
20260505094026 10 33 6.4 12.9 0.28 0.51 0.00 88 1009.0
20260505093846 24 223 6.4 9.7 0.00 0.00 0.00 46 1013.2
20260505093838 15 74 6.4 8.0 0.00 0.13 0.00 80 1014.4
20260505093833 15 213 3.2 8.0 0.08 0.10 0.00 86 1012.4
20260505093831 13 5 0.0 3.2 0.03 0.74 0.00 93 1014.1
20260505093815 15 95 0.0 3.2 0.03 0.03 0.00 76 1013.1
20260505093810 15 93 1.6 4.8 0.03 0.03 0.00 82 1012.4
20260505093346 24 155 4.8 17.7 0.00 0.00 0.00 46 1013.5
20260505093344 16 142 0.0 0.0 1.96 4.32 0.00 95 1011.4
20260505093340 15 51 4.8 4.8 0.00 0.13 0.00 80 1014.5
20260505093334 13 5 0.0 3.2 0.03 0.74 0.00 93 1014.0
20260505093331 10 355 6.4 11.3 0.28 0.48 0.00 88 1009.0
20260505093329 12 281 0.0 3.2 0.33 2.57 0.00 95 1010.4
20260505093324 15 301 0.0 4.8 0.00 0.00 0.00 75 1014.1
20260505093313 15 95 3.2 9.7 0.00 0.00 0.00 82 1012.6
20260505092844 24 210 3.2 16.1 0.00 0.00 0.00 46 1013.5
20260505092840 14 52 3.2 6.4 0.00 0.13 0.00 81 1014.3
20260505092837 13 5 0.0 3.2 0.05 0.74 0.00 93 1013.9
20260505092834 10 355 3.2 9.7 0.25 0.46 0.00 88 1009.1
20260505092830 15 212 3.2 6.4 0.05 0.08 0.00 85 1012.4
20260505092824 15 20 3.2 6.4 0.00 0.00 0.00 75 1014.1
20260505092816 15 101 6.4 8.0 0.00 0.00 0.00 84 1012.5
20260505092812 15 220 0.0 4.8 0.03 0.03 0.00 74 1013.1
20260505092340 24 182 8.0 17.7 0.00 0.00 0.00 46 1013.5
20260505092338 14 51 3.2 4.8 0.03 0.13 0.00 83 1014.5
20260505092333 12 251 1.6 6.4 0.51 2.41 0.00 95 1010.1
20260505092331 13 5 1.6 1.6 0.08 0.74 0.00 93 1013.9
20260505092315 15 333 4.8 4.8 0.00 0.00 0.00 75 1014.1
20260505092312 15 222 3.2 6.4 0.03 0.03 0.00 75 1013.2
20260505092310 15 144 0.0 3.2 0.00 0.00 0.00 83 1012.6
20260505091850 16 204 0.0 1.6 2.03 4.22 0.00 95 1010.9
20260505091844 24 171 6.4 12.9 0.00 0.00 0.00 48 1013.3
20260505091834 13 0 1.6 1.6 0.10 0.74 0.00 93 1013.9
20260505091830 15 210 3.2 8.0 0.05 0.08 0.00 83 1012.4
20260505091815 15 191 0.0 4.8 0.00 0.00 0.00 74 1013.2
20260505091810 15 144 1.6 4.8 0.00 0.00 0.00 82 1012.6
20260505091346 24 123 6.4 14.5 0.00 0.00 0.00 47 1013.4
20260505091341 15 39 3.2 4.8 0.03 0.13 0.00 83 1014.5
20260505091331 13 0 0.0 3.2 0.13 0.74 0.00 94 1013.8
20260505091329 12 240 3.2 3.2 0.71 2.39 0.00 94 1010.1
20260505091318 15 27 3.2 4.8 0.00 0.00 0.00 75 1014.2
20260505091312 15 192 4.8 9.7 0.00 0.00 0.00 72 1013.4
20260505091310 15 137 1.6 3.2 0.00 0.00 0.00 81 1012.7
20260505090843 23 132 4.8 12.9 0.00 0.00 0.00 47 1013.4
20260505090838 14 252 1.6 3.2 0.05 0.13 0.00 83 1014.6
20260505090832 12 240 0.0 1.6 0.69 2.36 0.00 94 1010.1
20260505090830 15 344 0.0 4.8 0.05 0.08 0.00 83 1012.4
20260505090821 15 202 0.0 0.0 0.00 0.00 0.00 72 1013.2
20260505090815 15 1 0.0 4.8 0.00 0.00 0.00 75 1014.2
20260505090811 15 137 1.6 3.2 0.00 0.00 0.00 81 1012.4
20260505090344 16 129 0.0 0.0 0.74 2.87 0.00 95 1011.3
20260505090341 23 162 4.8 14.5 0.00 0.00 0.00 46 1013.5
20260505090339 15 348 0.0 3.2 0.03 0.05 0.00 84 1012.4
20260505090337 13 0 0.0 1.6 0.18 0.74 0.00 93 1013.9
20260505090331 11 63 6.4 9.7 0.28 0.33 0.00 88 1009.3
20260505090315 15 11 0.0 8.0 0.00 0.00 0.00 74 1014.2
20260505090312 15 202 0.0 0.0 0.00 0.00 0.00 72 1013.3
20260505090307 15 166 1.6 4.8 0.00 0.00 0.00 80 1012.5
20260505085841 14 252 0.0 0.0 0.08 0.13 0.00 83 1014.7
20260505085837 13 0 0.0 4.8 0.20 0.74 0.00 93 1013.9
20260505085831 11 46 4.8 8.0 0.28 0.28 0.00 88 1009.3
20260505085829 12 240 0.0 1.6 0.71 2.31 0.00 94 1010.2
20260505085815 15 302 0.0 4.8 0.00 0.00 0.00 74 1014.1
20260505085812 15 205 0.0 6.4 0.00 0.00 0.00 71 1013.3
20260505085810 15 167 4.8 4.8 0.00 0.00 0.00 80 1012.5
20260505085344 23 173 8.0 12.9 0.00 0.00 0.00 52 1013.6
20260505085337 11 32 4.8 11.3 0.25 0.25 0.00 88 1009.2
20260505085333 15 348 1.6 3.2 0.03 0.03 0.00 84 1012.4
20260505085331 13 37 0.0 4.8 0.25 0.74 0.00 93 1013.8
20260505085324 15 314 0.0 8.0 0.00 0.00 0.00 74 1014.2
20260505085312 15 178 3.2 9.7 0.00 0.00 0.00 71 1013.2
20260505085307 15 167 0.0 6.4 0.00 0.00 0.00 80 1012.4
20260505084846 23 137 1.6 12.9 0.00 0.00 0.00 53 1013.7
20260505084844 16 129 0.0 0.0 0.25 2.36 0.00 95 1011.3
20260505084840 14 252 3.2 4.8 0.10 0.13 0.00 83 1014.5
20260505084836 12 240 1.6 3.2 0.71 2.31 0.00 95 1010.2
20260505084834 11 55 8.0 8.0 0.25 0.25 0.00 88 1009.2
20260505084830 15 348 0.0 1.6 0.03 0.03 0.00 83 1012.4
20260505084824 14 293 3.2 8.0 0.00 0.00 0.00 72 1014.1
20260505084812 16 183 4.8 9.7 0.00 0.00 0.00 72 1013.3
20260505084807 15 169 3.2 6.4 0.00 0.00 0.00 79 1012.4
20260505084343 23 203 4.8 11.3 0.00 0.00 0.00 55 1013.9
20260505084341 14 252 1.6 3.2 0.10 0.13 0.00 82 1014.4
20260505084336 15 348 0.0 3.2 0.03 0.03 0.00 82 1012.4
20260505084334 13 109 0.0 3.2 0.28 0.71 0.00 93 1013.7
20260505084315 14 75 0.0 9.7 0.00 0.00 0.00 76 1014.1
20260505084312 16 221 6.4 9.7 0.00 0.00 0.00 70 1013.2
20260505084307 15 74 0.0 0.0 0.00 0.00 0.00 79 1012.4
20260505083846 22 218 4.8 12.9 0.00 0.00 0.00 54 1014.0
20260505083840 11 56 3.2 9.7 0.20 0.20 0.00 87 1009.3
20260505083838 14 252 1.6 3.2 0.10 0.13 0.00 82 1014.4
20260505083836 15 348 0.0 3.2 0.03 0.03 0.00 83 1012.5
20260505083830 12 328 0.0 4.8 0.69 2.29 0.00 94 1010.3
20260505083821 14 308 4.8 9.7 0.00 0.00 0.00 74 1013.9
20260505083812 16 205 8.0 16.1 0.00 0.00 0.00 69 1013.2
20260505083807 15 74 0.0 0.0 0.00 0.00 0.00 78 1012.3
20260505083350 16 237 0.0 0.0 0.25 2.34 0.00 95 1011.3
20260505083343 22 206 4.8 8.0 0.00 0.00 0.00 57 1014.1
20260505083339 12 25 3.2 4.8 0.64 2.24 0.00 94 1010.3
20260505083337 13 252 0.0 4.8 0.10 0.13 0.00 82 1014.4
20260505083334 11 74 11.3 11.3 0.20 0.20 0.00 87 1009.3
20260505083331 13 109 0.0 3.2 0.36 0.69 0.00 93 1013.9
20260505083315 14 12 1.6 8.0 0.00 0.00 0.00 76 1014.0
20260505083312 16 132 0.0 9.7 0.00 0.00 0.00 70 1013.2
20260505083310 15 74 0.0 0.0 0.00 0.00 0.00 77 1012.2
20260505082844 22 172 1.6 9.7 0.00 0.00 0.00 58 1014.0
20260505082835 11 109 9.7 11.3 0.18 0.18 0.00 87 1009.4
20260505082831 13 109 0.0 3.2 0.36 0.66 0.00 93 1013.6
20260505082818 14 340 4.8 8.0 0.00 0.00 0.00 76 1014.0
20260505082812 16 171 9.7 9.7 0.00 0.00 0.00 67 1013.2
20260505082346 22 171 4.8 11.3 0.00 0.00 0.00 58 1014.0
20260505082344 13 252 1.6 4.8 0.10 0.10 0.00 83 1014.5
20260505082334 13 109 1.6 6.4 0.36 0.64 0.00 93 1013.5
20260505082332 10 86 8.0 11.3 0.18 0.18 0.00 86 1009.4
20260505082330 15 348 0.0 1.6 0.03 0.03 0.00 81 1012.4
20260505082315 14 12 0.0 6.4 0.00 0.00 0.00 74 1014.0
20260505082312 16 196 8.0 11.3 0.00 0.00 0.00 66 1013.0
20260505082310 15 74 0.0 0.0 0.00 0.00 0.00 74 1012.2
20260505081851 16 237 0.0 0.0 0.08 2.18 0.00 95 1011.1
20260505081840 22 166 6.4 14.5 0.00 0.00 0.00 58 1014.0
20260505081838 13 252 0.0 6.4 0.10 0.10 0.00 83 1014.5
20260505081833 15 348 1.6 4.8 0.03 0.03 0.00 81 1012.3
20260505081831 13 108 0.0 8.0 0.36 0.61 0.00 93 1013.4
20260505081815 14 318 4.8 9.7 0.00 0.00 0.00 74 1014.0
20260505081812 16 207 4.8 9.7 0.00 0.00 0.00 66 1012.9
20260505081807 15 74 0.0 3.2 0.00 0.00 0.00 74 1012.2
20260505081350 22 203 6.4 8.0 0.00 0.00 0.00 61 1014.0
20260505081340 13 252 3.2 6.4 0.10 0.10 0.00 83 1014.5
20260505081332 10 132 6.4 16.1 0.13 0.13 0.00 85 1009.3
20260505081330 12 252 1.6 6.4 0.05 1.65 0.00 94 1009.9
20260505081318 14 8 1.6 8.0 0.00 0.00 0.00 74 1014.1
20260505081312 16 159 0.0 9.7 0.00 0.00 0.00 65 1012.9
20260505081310 16 74 3.2 4.8 0.00 0.00 0.00 75 1012.2
20260505080841 21 155 4.8 14.5 0.00 0.00 0.00 63 1014.0
20260505080839 12 188 4.8 4.8 0.08 1.65 0.00 94 1009.9
20260505080834 11 5 8.0 14.5 0.08 0.08 0.00 84 1009.2
20260505080831 13 107 3.2 4.8 0.38 0.56 0.00 93 1013.5
20260505080815 13 310 0.0 0.0 0.00 0.00 0.00 78 1014.0
20260505080807 16 75 3.2 3.2 0.00 0.00 0.00 74 1012.2
20260505080350 16 237 0.0 0.0 0.08 2.11 0.00 95 1011.0
20260505080343 21 160 8.0 12.9 0.00 0.00 0.00 62 1013.8
20260505080340 11 43 6.4 12.9 0.05 0.05 0.00 83 1009.2
20260505080338 13 253 1.6 4.8 0.08 0.10 0.00 83 1014.3
20260505080331 13 107 1.6 6.4 0.36 0.53 0.00 92 1013.6
20260505080318 16 75 3.2 4.8 0.00 0.00 0.00 73 1012.2
20260505080315 16 180 0.0 8.0 0.00 0.00 0.00 63 1012.7
20260505075845 13 252 3.2 4.8 0.05 0.08 0.00 82 1014.4
20260505075843 21 157 6.4 12.9 0.00 0.00 0.00 63 1013.9
20260505075840 13 196 1.6 3.2 0.36 0.51 0.00 92 1013.6
20260505075835 11 42 8.0 16.1 0.00 0.00 0.00 82 1009.1
20260505075833 15 348 0.0 4.8 0.00 0.00 0.00 77 1012.2
20260505075830 12 186 1.6 1.6 0.10 1.60 0.00 94 1010.1
20260505075818 13 283 0.0 1.6 0.00 0.00 0.00 76 1013.9
20260505075812 16 220 4.8 8.0 0.00 0.00 0.00 62 1012.8
20260505075807 15 111 0.0 0.0 0.00 0.00 0.00 71 1012.3
20260505075343 21 219 4.8 12.9 0.00 0.00 0.00 64 1014.0
20260505075337 13 252 3.2 6.4 0.05 0.05 0.00 82 1014.3
20260505075335 11 11 14.5 17.7 0.00 0.00 0.00 81 1009.1
20260505075333 16 348 3.2 3.2 0.00 0.00 0.00 76 1012.1
20260505075330 12 186 0.0 1.6 0.20 1.60 0.00 94 1010.1
20260505075315 13 158 0.0 0.0 0.00 0.00 0.00 76 1014.1
20260505075313 16 111 0.0 0.0 0.00 0.00 0.00 71 1012.2
20260505074844 15 237 0.0 0.0 0.08 2.11 0.00 95 1011.0
20260505074841 13 234 4.8 11.3 0.05 0.05 0.00 82 1014.4
20260505074833 16 348 0.0 3.2 0.00 0.00 0.00 74 1012.0
20260505074831 12 186 0.0 1.6 0.36 1.60 0.00 94 1010.1
20260505074815 13 158 0.0 0.0 0.00 0.00 0.00 75 1014.1
20260505074810 16 111 0.0 0.0 0.00 0.00 0.00 71 1012.2
20260505074341 13 255 3.2 6.4 0.05 0.05 0.00 82 1014.3
20260505074336 12 186 0.0 1.6 0.38 1.60 0.00 94 1010.2
20260505074331 13 229 0.0 1.6 0.28 0.41 0.00 92 1013.8
20260505074318 16 44 0.0 0.0 0.00 0.00 0.00 58 1012.6
20260505074315 16 111 0.0 0.0 0.00 0.00 0.00 71 1012.2
20260505073843 21 143 3.2 8.0 0.00 0.00 0.00 68 1014.1
20260505073837 13 229 0.0 1.6 0.25 0.36 0.00 92 1013.9
20260505073833 12 186 1.6 3.2 0.41 1.60 0.00 94 1010.2
20260505073830 16 348 3.2 4.8 0.00 0.00 0.00 71 1011.8
20260505073824 13 155 0.0 0.0 0.00 0.00 0.00 73 1014.0
20260505073812 16 44 0.0 0.0 0.00 0.00 0.00 58 1012.6
20260505073353 15 236 0.0 0.0 0.05 2.08 0.00 95 1010.9
20260505073340 20 188 0.0 8.0 0.00 0.00 0.00 69 1014.1
20260505073338 14 211 0.0 8.0 0.03 0.03 0.00 81 1014.4
20260505073335 11 346 8.0 17.7 0.00 0.00 0.00 81 1009.1
20260505073331 13 229 0.0 1.6 0.25 0.33 0.00 92 1013.9
20260505073318 13 160 0.0 8.0 0.00 0.00 0.00 72 1014.1
20260505073315 16 24 0.0 6.4 0.00 0.00 0.00 57 1012.6
20260505073310 15 110 0.0 4.8 0.00 0.00 0.00 72 1012.1
20260505072840 20 124 4.8 9.7 0.00 0.00 0.00 69 1014.0
20260505072838 14 215 4.8 6.4 0.03 0.03 0.00 80 1014.3
20260505072834 13 229 0.0 1.6 0.20 0.28 0.00 92 1014.0
20260505072832 11 55 11.3 20.9 0.00 0.00 0.00 81 1009.1
20260505072821 14 155 3.2 9.7 0.00 0.00 0.00 71 1014.1
20260505072813 15 111 0.0 3.2 0.00 0.00 0.00 73 1012.1
20260505072341 14 205 4.8 6.4 0.03 0.03 0.00 79 1014.4
20260505072339 11 349 8.0 17.7 0.00 0.00 0.00 81 1009.1
20260505072337 13 229 0.0 3.2 0.20 0.28 0.00 92 1014.1
20260505072330 16 19 3.2 6.4 0.00 0.00 0.00 71 1011.7
20260505072318 14 174 6.4 6.4 0.00 0.00 0.00 72 1014.0
20260505072310 15 111 0.0 4.8 0.00 0.00 0.00 73 1012.1
20260505071844 15 236 0.0 0.0 0.05 2.08 0.00 95 1011.0
20260505071841 15 257 1.6 4.8 0.03 0.03 0.00 77 1014.3
20260505071835 11 48 6.4 22.5 0.00 0.00 0.00 81 1009.0
20260505071833 12 266 1.6 4.8 0.51 1.60 0.00 94 1010.6
20260505071815 14 150 4.8 4.8 0.00 0.00 0.00 67 1014.0
20260505071813 15 112 0.0 0.0 0.00 0.00 0.00 73 1012.1
20260505071340 19 159 4.8 11.3 0.00 0.00 0.00 71 1014.1
20260505071338 15 256 3.2 6.4 0.03 0.03 0.00 74 1014.4
20260505071332 11 5 8.0 19.3 0.00 0.00 0.00 80 1008.8
20260505071330 12 44 1.6 4.8 0.51 1.60 0.00 94 1010.5
20260505071315 15 162 1.6 4.8 0.00 0.00 0.00 67 1014.0
20260505071312 16 337 3.2 11.3 0.00 0.00 0.00 58 1012.7
20260505071310 15 112 0.0 0.0 0.00 0.00 0.00 73 1012.2
20260505070843 19 182 4.8 11.3 0.00 0.00 0.00 73 1014.1
20260505070838 15 244 4.8 6.4 0.03 0.03 0.00 73 1014.4
20260505070834 13 227 1.6 3.2 0.13 0.18 0.00 91 1013.9
20260505070832 11 46 14.5 22.5 0.00 0.00 0.00 80 1008.7
20260505070830 12 261 1.6 4.8 0.48 1.57 0.00 94 1010.6
20260505070815 15 159 4.8 6.4 0.00 0.00 0.00 62 1014.0
20260505070812 16 22 6.4 6.4 0.00 0.00 0.00 60 1012.8
20260505070349 19 147 8.0 12.9 0.00 0.00 0.00 75 1014.0
20260505070344 15 212 0.0 0.0 0.00 2.03 0.00 95 1010.8
20260505070338 15 321 3.2 6.4 0.03 0.03 0.00 74 1014.2
20260505070334 14 225 0.0 4.8 0.13 0.15 0.00 91 1013.9
20260505070332 11 10 12.9 22.5 0.00 0.00 0.00 79 1008.7
20260505070330 12 257 0.0 0.0 0.46 1.55 0.00 94 1010.6
20260505070315 15 159 0.0 6.4 0.00 0.00 0.00 59 1014.0
20260505070311 15 211 0.0 3.2 0.00 0.00 0.00 75 1012.3
20260505065847 15 314 4.8 6.4 0.03 0.03 0.00 75 1014.2
20260505065843 18 212 11.3 11.3 0.00 0.00 0.00 77 1014.0
20260505065836 15 11 6.4 8.0 0.00 0.00 0.00 71 1011.7
20260505065831 14 224 0.0 3.2 0.10 0.13 0.00 91 1013.7
20260505065821 15 132 4.8 6.4 0.00 0.00 0.00 56 1013.9
20260505065815 16 313 3.2 9.7 0.00 0.00 0.00 59 1012.6
20260505065808 15 197 0.0 3.2 0.00 0.00 0.00 74 1012.3
20260505065347 18 154 6.4 9.7 0.00 0.00 0.00 79 1014.0
20260505065338 11 25 6.4 27.4 0.00 0.00 0.00 77 1008.7
20260505065331 13 224 0.0 0.0 0.13 0.13 0.00 91 1013.6
20260505065315 15 139 4.8 6.4 0.00 0.00 0.00 54 1013.9
20260505065307 15 197 0.0 1.6 0.00 0.00 0.00 76 1012.3
20260505064844 15 168 0.0 0.0 0.00 2.03 0.00 95 1010.7
20260505064841 18 176 8.0 11.3 0.00 0.00 0.00 79 1014.0
20260505064837 15 291 4.8 11.3 0.00 0.00 0.00 74 1014.2
20260505064832 11 45 9.7 19.3 0.00 0.00 0.00 77 1008.7
20260505064830 15 22 3.2 12.9 0.00 0.00 0.00 71 1011.6
20260505064817 15 133 3.2 3.2 0.00 0.00 0.00 62 1013.9
20260505064812 16 312 3.2 3.2 0.00 0.00 0.00 60 1012.7
20260505064810 15 197 1.6 4.8 0.00 0.00 0.00 77 1012.3
20260505064344 18 194 4.8 11.3 0.00 0.00 0.00 81 1013.9
20260505064341 15 307 8.0 11.3 0.00 0.00 0.00 74 1014.2
20260505064334 14 223 0.0 3.2 0.10 0.10 0.00 91 1013.6
20260505064332 11 51 6.4 27.4 0.00 0.00 0.00 76 1008.6
20260505064318 15 131 0.0 8.0 0.00 0.00 0.00 62 1013.8
20260505064316 14 237 0.0 3.2 0.00 0.00 0.00 77 1012.3
20260505063841 11 329 24.1 24.1 0.00 0.00 0.00 76 1008.7
20260505063837 14 309 6.4 11.3 0.00 0.00 0.00 76 1014.2
20260505063834 12 246 0.0 3.2 0.33 1.22 0.00 94 1010.5
20260505063831 14 217 1.6 3.2 0.10 0.10 0.00 91 1013.7
20260505063819 15 167 6.4 9.7 0.00 0.00 0.00 62 1013.8
20260505063815 16 327 3.2 6.4 0.00 0.00 0.00 60 1012.7
20260505063808 14 287 1.6 4.8 0.00 0.00 0.00 78 1012.3
20260505063344 15 166 0.0 0.0 0.00 2.03 0.00 95 1010.9
20260505063340 17 203 8.0 11.3 0.00 0.00 0.00 84 1014.0
20260505063338 14 316 4.8 4.8 0.00 0.00 0.00 79 1014.2
20260505063334 14 215 3.2 6.4 0.08 0.08 0.00 90 1013.9
20260505063330 12 246 3.2 4.8 0.38 1.14 0.00 94 1010.5
20260505063318 15 161 6.4 8.0 0.00 0.00 0.00 64 1013.7
20260505063316 13 213 1.6 4.8 0.00 0.00 0.00 78 1012.3
20260505063312 16 11 0.0 8.0 0.00 0.00 0.00 61 1012.7
20260505062842 14 278 1.6 6.4 0.00 0.00 0.00 80 1014.2
20260505062839 15 308 0.0 6.4 0.00 0.00 0.00 71 1011.8
20260505062835 11 355 14.5 29.0 0.00 0.00 0.00 75 1008.4
20260505062833 12 246 1.6 3.2 0.48 1.12 0.00 94 1010.5
20260505062831 14 253 3.2 4.8 0.08 0.08 0.00 90 1013.8
20260505062819 15 155 8.0 9.7 0.00 0.00 0.00 65 1013.8
20260505062813 13 205 0.0 3.2 0.00 0.00 0.00 78 1012.3
20260505062343 17 165 1.6 8.0 0.00 0.00 0.00 86 1013.9
20260505062337 14 279 0.0 4.8 0.00 0.00 0.00 80 1014.2
20260505062334 14 257 4.8 4.8 0.05 0.05 0.00 90 1013.7
20260505062332 11 0 17.7 32.2 0.00 0.00 0.00 74 1008.5
20260505062330 12 246 0.0 0.0 0.61 1.12 0.00 94 1010.5
20260505062316 15 172 4.8 11.3 0.00 0.00 0.00 65 1013.8
20260505062312 15 41 3.2 6.4 0.00 0.00 0.00 61 1012.7
20260505062307 13 205 1.6 3.2 0.00 0.00 0.00 79 1012.3
20260505061846 16 160 0.0 8.0 0.00 0.00 0.00 87 1013.9
20260505061844 14 252 0.0 3.2 0.00 0.00 0.00 80 1014.2
20260505061841 11 0 16.1 32.2 0.00 0.00 0.00 74 1008.5
20260505061833 12 245 0.0 3.2 0.71 1.12 0.00 93 1010.5
20260505061831 14 261 0.0 3.2 0.05 0.05 0.00 90 1013.7
20260505061818 15 355 0.0 11.3 0.00 0.00 0.00 62 1012.7
20260505061816 15 155 11.3 12.9 0.00 0.00 0.00 65 1013.8
20260505061807 13 198 3.2 3.2 0.00 0.00 0.00 79 1012.2
20260505061341 14 252 1.6 4.8 0.00 0.00 0.00 79 1014.2
20260505061336 12 245 1.6 3.2 0.74 1.12 0.00 93 1010.5
20260505061334 14 261 1.6 4.8 0.03 0.03 0.00 89 1013.6
20260505061330 15 307 4.8 6.4 0.00 0.00 0.00 72 1011.8
20260505061316 15 155 6.4 12.9 0.00 0.00 0.00 66 1013.8
20260505061312 15 303 6.4 8.0 0.00 0.00 0.00 61 1012.7
20260505061310 13 196 0.0 3.2 0.00 0.00 0.00 79 1012.3
20260505060846 16 170 3.2 11.3 0.00 0.00 0.00 88 1013.8
20260505060838 15 296 3.2 6.4 0.00 0.00 0.00 79 1014.2
20260505060836 11 88 8.0 20.9 0.00 0.00 0.00 73 1008.6
20260505060833 12 245 0.0 3.2 0.84 1.12 0.00 93 1010.5
20260505060831 14 262 1.6 4.8 0.03 0.03 0.00 88 1013.4
20260505060816 15 130 8.0 12.9 0.00 0.00 0.00 65 1013.6
20260505060807 13 197 0.0 1.6 0.00 0.00 0.00 80 1012.3
20260505060350 15 163 0.0 0.0 0.00 2.03 0.00 95 1010.9
20260505060343 16 166 6.4 12.9 0.00 0.00 0.00 88 1013.8
20260505060340 15 320 4.8 11.3 0.00 0.00 0.00 78 1014.1
20260505060338 11 48 9.7 22.5 0.00 0.00 0.00 73 1008.7
20260505060334 15 259 1.6 9.7 0.00 0.00 0.00 88 1013.4
20260505060331 12 244 0.0 6.4 0.89 1.12 0.00 93 1010.5
20260505060316 15 138 1.6 17.7 0.00 0.00 0.00 64 1013.6
20260505060312 15 316 6.4 11.3 0.00 0.00 0.00 61 1012.8
20260505055841 16 214 6.4 11.3 0.00 0.00 0.00 88 1013.9
20260505055838 14 282 6.4 11.3 0.00 0.00 0.00 79 1014.0
20260505055835 11 350 12.9 20.9 0.00 0.00 0.00 73 1008.7
20260505055833 12 248 4.8 4.8 0.91 1.12 0.00 93 1010.5
20260505055831 15 321 3.2 6.4 0.00 0.00 0.00 88 1013.2
20260505055822 15 150 8.0 12.9 0.00 0.00 0.00 65 1013.6
20260505055812 15 302 3.2 14.5 0.00 0.00 0.00 62 1012.8
20260505055347 15 180 8.0 11.3 0.00 0.00 0.00 89 1013.8
20260505055341 14 281 11.3 12.9 0.00 0.00 0.00 80 1014.1
20260505055336 13 157 0.0 0.0 0.00 0.00 0.00 81 1012.1
20260505055333 12 249 1.6 3.2 0.94 1.09 0.00 93 1010.5
20260505055331 15 263 3.2 6.4 0.00 0.00 0.00 87 1013.2
20260505055319 15 139 9.7 11.3 0.00 0.00 0.00 66 1013.5
20260505055312 15 311 8.0 14.5 0.00 0.00 0.00 62 1012.7
20260505054844 14 163 0.0 0.0 0.10 2.03 0.00 95 1010.9
20260505054838 11 74 1.6 16.1 0.00 0.00 0.00 73 1008.6
20260505054833 15 348 0.0 4.8 0.00 0.00 0.00 73 1011.6
20260505054831 15 288 3.2 9.7 0.00 0.00 0.00 87 1013.2
20260505054816 15 150 1.6 6.4 0.00 0.00 0.00 68 1013.4
20260505054812 15 5 9.7 12.9 0.00 0.00 0.00 63 1012.9
20260505054808 13 136 0.0 0.0 0.00 0.00 0.00 81 1012.0
20260505054343 15 165 4.8 12.9 0.00 0.00 0.00 89 1013.6
20260505054339 11 11 4.8 17.7 0.00 0.00 0.00 74 1008.6
20260505054337 15 256 1.6 9.7 0.00 0.00 0.00 82 1014.1
20260505054334 15 270 3.2 6.4 0.00 0.00 0.00 87 1013.2
20260505054330 12 248 1.6 3.2 0.84 0.94 0.00 93 1010.5
20260505054319 15 146 4.8 8.0 0.00 0.00 0.00 68 1013.4
20260505054312 15 35 0.0 1.6 0.00 0.00 0.00 63 1012.8
20260505054307 13 65 0.0 0.0 0.00 0.00 0.00 82 1011.9
20260505053840 15 128 6.4 9.7 0.00 0.00 0.00 89 1013.7
20260505053838 15 269 3.2 9.7 0.00 0.00 0.00 82 1014.1
20260505053835 11 29 6.4 16.1 0.00 0.00 0.00 74 1008.5
20260505053833 12 248 1.6 4.8 0.79 0.89 0.00 93 1010.5
20260505053831 15 264 1.6 6.4 0.00 0.00 0.00 87 1013.1
20260505053819 15 183 4.8 9.7 0.00 0.00 0.00 67 1013.3
20260505053812 15 34 0.0 6.4 0.00 0.00 0.00 63 1012.7
20260505053808 13 65 0.0 0.0 0.00 0.00 0.00 83 1011.8
20260505053344 14 163 0.0 0.0 0.30 2.03 0.00 95 1010.8
20260505053340 15 304 3.2 12.9 0.00 0.00 0.00 81 1014.0
20260505053334 15 231 4.8 6.4 0.00 0.00 0.00 86 1013.2
20260505053332 11 34 9.7 19.3 0.00 0.00 0.00 74 1008.4
20260505053330 12 248 3.2 6.4 0.66 0.74 0.00 93 1010.5
20260505053319 15 168 4.8 9.7 0.00 0.00 0.00 66 1013.3
20260505053307 12 65 0.0 0.0 0.00 0.00 0.00 83 1012.0
20260505052846 14 141 3.2 9.7 0.00 0.00 0.00 89 1013.6
20260505052838 15 308 6.4 6.4 0.00 0.00 0.00 80 1013.9
20260505052836 15 10 1.6 9.7 0.00 0.00 0.00 72 1011.5
20260505052832 11 17 16.1 17.7 0.00 0.00 0.00 74 1008.4
20260505052830 12 250 4.8 4.8 0.53 0.61 0.00 93 1010.5
20260505052819 15 146 4.8 11.3 0.00 0.00 0.00 66 1013.4
20260505052812 15 13 0.0 6.4 0.00 0.00 0.00 63 1012.7
20260505052807 12 67 0.0 0.0 0.00 0.00 0.00 83 1012.0
20260505052341 14 148 8.0 9.7 0.00 0.00 0.00 89 1013.6
20260505052336 15 43 0.0 6.4 0.00 0.00 0.00 72 1011.5
20260505052333 12 269 1.6 1.6 0.41 0.48 0.00 93 1010.5
20260505052331 15 271 0.0 1.6 0.00 0.00 0.00 86 1013.2
20260505052316 15 155 6.4 9.7 0.00 0.00 0.00 66 1013.2
20260505052307 12 66 0.0 0.0 0.00 0.00 0.00 84 1011.9
20260505051844 14 164 0.0 0.0 0.38 2.03 0.00 95 1010.9
20260505051841 14 141 3.2 9.7 0.00 0.00 0.00 89 1013.6
20260505051836 12 269 0.0 1.6 0.33 0.41 0.00 93 1010.5
20260505051834 15 271 0.0 3.2 0.00 0.00 0.00 86 1013.1
20260505051832 11 5 16.1 16.1 0.00 0.00 0.00 73 1008.5
20260505051818 15 5 0.0 11.3 0.00 0.00 0.00 63 1012.7
20260505051816 15 152 6.4 9.7 0.00 0.00 0.00 66 1013.3
20260505051807 12 38 0.0 0.0 0.00 0.00 0.00 85 1012.0
20260505051341 13 128 6.4 9.7 0.00 0.00 0.00 89 1013.7
20260505051332 11 25 9.7 16.1 0.00 0.00 0.00 72 1008.5
20260505051330 15 339 4.8 11.3 0.00 0.00 0.00 72 1011.5
20260505051322 15 162 8.0 9.7 0.00 0.00 0.00 66 1013.3
20260505051312 15 25 8.0 16.1 0.00 0.00 0.00 63 1012.7
20260505051307 12 38 0.0 0.0 0.00 0.00 0.00 85 1012.1
20260505050844 13 146 1.6 9.7 0.00 0.00 0.00 88 1013.7
20260505050837 15 298 6.4 11.3 0.00 0.00 0.00 75 1013.6
20260505050834 15 279 3.2 4.8 0.00 0.00 0.00 85 1013.1
20260505050830 15 343 1.6 6.4 0.00 0.00 0.00 72 1011.5
20260505050819 15 124 4.8 8.0 0.00 0.00 0.00 65 1013.1
20260505050812 15 15 0.0 17.7 0.00 0.00 0.00 63 1012.7
20260505050807 12 38 0.0 0.0 0.00 0.00 0.00 85 1012.2
20260505050344 13 164 0.0 0.0 0.56 2.01 0.00 94 1011.0
20260505050341 13 133 3.2 12.9 0.00 0.00 0.00 88 1013.7
20260505050338 11 334 9.7 17.7 0.00 0.00 0.00 72 1008.6
20260505050336 11 269 1.6 4.8 0.13 0.23 0.00 93 1010.5
20260505050331 15 279 0.0 3.2 0.00 0.00 0.00 84 1012.9
20260505050321 15 349 0.0 14.5 0.00 0.00 0.00 63 1012.6
20260505050316 15 137 6.4 9.7 0.00 0.00 0.00 63 1013.1
20260505050308 12 38 0.0 0.0 0.00 0.00 0.00 85 1012.2
20260505041340 13 148 3.2 8.0 0.00 0.00 0.00 86 1013.6
20260505041334 15 236 0.0 4.8 0.00 0.00 0.00 83 1013.1
20260505041332 11 9 8.0 16.1 0.00 0.00 0.00 73 1008.6
20260505041330 13 353 3.2 8.0 0.00 0.00 0.00 75 1011.7
20260505041319 15 136 0.0 0.0 0.00 0.00 0.00 62 1013.1
20260505041316 11 38 0.0 0.0 0.00 0.00 0.00 86 1012.4
20260505041312 15 11 3.2 6.4 0.00 0.00 0.00 65 1012.9
20260505040844 13 126 3.2 6.4 0.00 0.00 0.00 86 1013.6
20260505040841 11 5 12.9 16.1 0.00 0.00 0.00 73 1008.6
20260505040837 15 248 3.2 4.8 0.00 0.00 0.00 82 1013.1
20260505040831 11 252 3.2 4.8 0.03 0.08 0.00 92 1010.3
20260505040817 12 38 0.0 0.0 0.00 0.00 0.00 86 1012.3
20260505040812 15 5 0.0 11.3 0.00 0.00 0.00 65 1012.9
20260505040349 13 148 4.8 6.4 0.00 0.00 0.00 85 1013.6
20260505040344 13 119 0.0 0.0 0.76 1.42 0.00 94 1010.7
20260505040336 12 337 8.0 12.9 0.00 0.00 0.00 73 1008.6
20260505040334 15 273 1.6 4.8 0.00 0.00 0.00 82 1013.1
20260505040330 11 261 3.2 4.8 0.03 0.08 0.00 92 1010.3
20260505040316 15 91 0.0 0.0 0.00 0.00 0.00 64 1013.1
20260505040312 15 34 8.0 12.9 0.00 0.00 0.00 65 1012.8
20260505040307 11 38 0.0 0.0 0.00 0.00 0.00 86 1012.5
20260505035840 13 146 3.2 6.4 0.00 0.00 0.00 85 1013.6
20260505035837 15 279 0.0 4.8 0.00 0.00 0.00 82 1013.1
20260505035835 12 309 3.2 19.3 0.00 0.00 0.00 73 1008.8
20260505035830 11 267 1.6 3.2 0.03 0.08 0.00 91 1010.4
20260505035816 15 92 0.0 0.0 0.00 0.00 0.00 64 1013.1
20260505035807 11 38 0.0 0.0 0.00 0.00 0.00 85 1012.5